<?xml version="1.0" encoding="UTF-8" standalone="no" ?>
<gpx xmlns="http://www.topografix.com/GPX/1/1" xmlns:xsi="http://www.w3.org/2001/XMLSchema-instance" xsi:schemaLocation="http://www.topografix.com/GPX/1/1 http://www.topografix.com/GPX/1/1/gpx.xsd" version="1.1" creator="VisuGPX - https://www.visugpx.com">
  <metadata>
    <name>tour du lac du Bourget</name>
    <desc><![CDATA[vtt slyeb, programme 2011 à la journée 

]]></desc>
  </metadata>
  <trk>
    <name><![CDATA[bourget1-F]]></name>
    <trkseg>
      <trkpt lat="45.64776" lon="5.86021">
        <ele>244</ele>
        <time>2008-09-29T18:16:19Z</time>
      </trkpt>
      <trkpt lat="45.64774" lon="5.86053">
        <ele>243</ele>
        <time>2008-09-29T18:16:19Z</time>
      </trkpt>
      <trkpt lat="45.64774" lon="5.86132">
        <ele>240</ele>
        <time>2008-09-29T18:16:19Z</time>
      </trkpt>
      <trkpt lat="45.64781" lon="5.862">
        <ele>237</ele>
        <time>2008-09-29T18:16:19Z</time>
      </trkpt>
      <trkpt lat="45.64785" lon="5.86264">
        <ele>235</ele>
        <time>2008-09-29T18:16:19Z</time>
      </trkpt>
      <trkpt lat="45.64784" lon="5.86283">
        <ele>234</ele>
        <time>2008-09-29T18:16:19Z</time>
      </trkpt>
      <trkpt lat="45.6478" lon="5.86321">
        <ele>233</ele>
        <time>2008-09-29T18:16:19Z</time>
      </trkpt>
      <trkpt lat="45.64755" lon="5.86342">
        <ele>233</ele>
        <time>2008-09-29T18:16:19Z</time>
      </trkpt>
      <trkpt lat="45.64721" lon="5.86377">
        <ele>233</ele>
        <time>2008-09-29T18:16:19Z</time>
      </trkpt>
      <trkpt lat="45.64706" lon="5.86402">
        <ele>233</ele>
        <time>2008-09-29T18:16:19Z</time>
      </trkpt>
      <trkpt lat="45.64667" lon="5.86438">
        <ele>233</ele>
        <time>2008-09-29T18:16:19Z</time>
      </trkpt>
      <trkpt lat="45.64644" lon="5.86459">
        <ele>234</ele>
        <time>2008-09-29T18:16:19Z</time>
      </trkpt>
      <trkpt lat="45.64622" lon="5.86493">
        <ele>233</ele>
        <time>2008-09-29T18:16:19Z</time>
      </trkpt>
      <trkpt lat="45.64628" lon="5.8652">
        <ele>233</ele>
        <time>2008-09-29T18:16:19Z</time>
      </trkpt>
      <trkpt lat="45.64636" lon="5.86543">
        <ele>233</ele>
        <time>2008-09-29T18:16:19Z</time>
      </trkpt>
      <trkpt lat="45.64644" lon="5.86544">
        <ele>233</ele>
        <time>2008-09-29T18:16:19Z</time>
      </trkpt>
      <trkpt lat="45.6465" lon="5.86527">
        <ele>233</ele>
        <time>2008-09-29T18:16:19Z</time>
      </trkpt>
      <trkpt lat="45.64664" lon="5.8651">
        <ele>233</ele>
        <time>2008-09-29T18:16:19Z</time>
      </trkpt>
      <trkpt lat="45.64677" lon="5.86498">
        <ele>233</ele>
        <time>2008-09-29T18:16:19Z</time>
      </trkpt>
      <trkpt lat="45.64692" lon="5.86478">
        <ele>233</ele>
        <time>2008-09-29T18:16:19Z</time>
      </trkpt>
      <trkpt lat="45.6471" lon="5.86474">
        <ele>233</ele>
        <time>2008-09-29T18:16:19Z</time>
      </trkpt>
      <trkpt lat="45.64733" lon="5.86485">
        <ele>232</ele>
        <time>2008-09-29T18:16:19Z</time>
      </trkpt>
      <trkpt lat="45.64734" lon="5.86487">
        <ele>232</ele>
        <time>2008-09-29T18:16:19Z</time>
      </trkpt>
      <trkpt lat="45.64744" lon="5.86513">
        <ele>232</ele>
        <time>2008-09-29T18:16:19Z</time>
      </trkpt>
      <trkpt lat="45.64756" lon="5.86543">
        <ele>232</ele>
        <time>2008-09-29T18:16:19Z</time>
      </trkpt>
      <trkpt lat="45.64765" lon="5.86576">
        <ele>232</ele>
        <time>2008-09-29T18:16:19Z</time>
      </trkpt>
      <trkpt lat="45.64768" lon="5.8661">
        <ele>232</ele>
        <time>2008-09-29T18:16:19Z</time>
      </trkpt>
      <trkpt lat="45.64765" lon="5.86638">
        <ele>231</ele>
        <time>2008-09-29T18:16:19Z</time>
      </trkpt>
      <trkpt lat="45.64751" lon="5.86653">
        <ele>231</ele>
        <time>2008-09-29T18:16:19Z</time>
      </trkpt>
      <trkpt lat="45.64733" lon="5.86663">
        <ele>232</ele>
        <time>2008-09-29T18:16:19Z</time>
      </trkpt>
      <trkpt lat="45.64715" lon="5.8669">
        <ele>232</ele>
        <time>2008-09-29T18:16:19Z</time>
      </trkpt>
      <trkpt lat="45.6471" lon="5.86734">
        <ele>232</ele>
        <time>2008-09-29T18:16:19Z</time>
      </trkpt>
      <trkpt lat="45.64708" lon="5.8679">
        <ele>232</ele>
        <time>2008-09-29T18:16:19Z</time>
      </trkpt>
      <trkpt lat="45.64704" lon="5.86816">
        <ele>232</ele>
        <time>2008-09-29T18:16:19Z</time>
      </trkpt>
      <trkpt lat="45.64711" lon="5.86877">
        <ele>232</ele>
        <time>2008-09-29T18:16:19Z</time>
      </trkpt>
      <trkpt lat="45.64722" lon="5.86926">
        <ele>232</ele>
        <time>2008-09-29T18:16:19Z</time>
      </trkpt>
      <trkpt lat="45.64726" lon="5.86968">
        <ele>232</ele>
        <time>2008-09-29T18:16:19Z</time>
      </trkpt>
      <trkpt lat="45.64726" lon="5.87003">
        <ele>231</ele>
        <time>2008-09-29T18:16:19Z</time>
      </trkpt>
      <trkpt lat="45.64709" lon="5.87039">
        <ele>231</ele>
        <time>2008-09-29T18:16:19Z</time>
      </trkpt>
      <trkpt lat="45.64686" lon="5.87078">
        <ele>232</ele>
        <time>2008-09-29T18:16:19Z</time>
      </trkpt>
      <trkpt lat="45.64663" lon="5.87112">
        <ele>232</ele>
        <time>2008-09-29T18:16:19Z</time>
      </trkpt>
      <trkpt lat="45.64651" lon="5.8713">
        <ele>232</ele>
        <time>2008-09-29T18:16:19Z</time>
      </trkpt>
      <trkpt lat="45.6464" lon="5.87149">
        <ele>232</ele>
        <time>2008-09-29T18:16:19Z</time>
      </trkpt>
      <trkpt lat="45.64643" lon="5.87192">
        <ele>232</ele>
        <time>2008-09-29T18:16:19Z</time>
      </trkpt>
      <trkpt lat="45.64677" lon="5.87236">
        <ele>232</ele>
        <time>2008-09-29T18:16:19Z</time>
      </trkpt>
      <trkpt lat="45.64705" lon="5.87276">
        <ele>231</ele>
        <time>2008-09-29T18:16:19Z</time>
      </trkpt>
      <trkpt lat="45.6473" lon="5.87317">
        <ele>231</ele>
        <time>2008-09-29T18:16:19Z</time>
      </trkpt>
      <trkpt lat="45.64753" lon="5.87339">
        <ele>231</ele>
        <time>2008-09-29T18:16:19Z</time>
      </trkpt>
      <trkpt lat="45.6477" lon="5.87356">
        <ele>230</ele>
        <time>2008-09-29T18:16:19Z</time>
      </trkpt>
      <trkpt lat="45.64782" lon="5.87376">
        <ele>230</ele>
        <time>2008-09-29T18:16:19Z</time>
      </trkpt>
      <trkpt lat="45.64804" lon="5.87411">
        <ele>230</ele>
        <time>2008-09-29T18:16:19Z</time>
      </trkpt>
      <trkpt lat="45.64819" lon="5.87436">
        <ele>230</ele>
        <time>2008-09-29T18:16:19Z</time>
      </trkpt>
      <trkpt lat="45.64835" lon="5.87474">
        <ele>230</ele>
        <time>2008-09-29T18:16:19Z</time>
      </trkpt>
      <trkpt lat="45.64837" lon="5.87519">
        <ele>230</ele>
        <time>2008-09-29T18:16:19Z</time>
      </trkpt>
      <trkpt lat="45.64839" lon="5.8756">
        <ele>230</ele>
        <time>2008-09-29T18:16:19Z</time>
      </trkpt>
      <trkpt lat="45.64839" lon="5.8762">
        <ele>230</ele>
        <time>2008-09-29T18:16:19Z</time>
      </trkpt>
      <trkpt lat="45.64834" lon="5.88126">
        <ele>230</ele>
        <time>2008-09-29T18:16:19Z</time>
      </trkpt>
      <trkpt lat="45.64829" lon="5.88389">
        <ele>230</ele>
        <time>2008-09-29T18:16:19Z</time>
      </trkpt>
      <trkpt lat="45.64827" lon="5.88649">
        <ele>229</ele>
        <time>2008-09-29T18:16:19Z</time>
      </trkpt>
      <trkpt lat="45.64823" lon="5.88826">
        <ele>229</ele>
        <time>2008-09-29T18:16:19Z</time>
      </trkpt>
      <trkpt lat="45.64822" lon="5.88961">
        <ele>229</ele>
        <time>2008-09-29T18:16:19Z</time>
      </trkpt>
      <trkpt lat="45.64824" lon="5.89067">
        <ele>229</ele>
        <time>2008-09-29T18:16:19Z</time>
      </trkpt>
      <trkpt lat="45.64822" lon="5.89133">
        <ele>230</ele>
        <time>2008-09-29T18:16:19Z</time>
      </trkpt>
      <trkpt lat="45.64805" lon="5.89167">
        <ele>230</ele>
        <time>2008-09-29T18:16:19Z</time>
      </trkpt>
      <trkpt lat="45.64789" lon="5.89201">
        <ele>231</ele>
        <time>2008-09-29T18:16:19Z</time>
      </trkpt>
      <trkpt lat="45.64777" lon="5.89244">
        <ele>231</ele>
        <time>2008-09-29T18:16:19Z</time>
      </trkpt>
      <trkpt lat="45.64776" lon="5.8927">
        <ele>231</ele>
        <time>2008-09-29T18:16:19Z</time>
      </trkpt>
      <trkpt lat="45.64766" lon="5.89285">
        <ele>231</ele>
        <time>2008-09-29T18:16:19Z</time>
      </trkpt>
      <trkpt lat="45.64765" lon="5.89314">
        <ele>232</ele>
        <time>2008-09-29T18:16:19Z</time>
      </trkpt>
      <trkpt lat="45.64772" lon="5.89334">
        <ele>232</ele>
        <time>2008-09-29T18:16:19Z</time>
      </trkpt>
      <trkpt lat="45.64778" lon="5.89342">
        <ele>232</ele>
        <time>2008-09-29T18:16:19Z</time>
      </trkpt>
      <trkpt lat="45.64797" lon="5.89362">
        <ele>233</ele>
        <time>2008-09-29T18:16:19Z</time>
      </trkpt>
      <trkpt lat="45.648" lon="5.894">
        <ele>234</ele>
        <time>2008-09-29T18:16:19Z</time>
      </trkpt>
      <trkpt lat="45.64803" lon="5.89429">
        <ele>235</ele>
        <time>2008-09-29T18:16:19Z</time>
      </trkpt>
      <trkpt lat="45.64803" lon="5.89458">
        <ele>236</ele>
        <time>2008-09-29T18:16:19Z</time>
      </trkpt>
      <trkpt lat="45.64792" lon="5.89476">
        <ele>237</ele>
        <time>2008-09-29T18:16:19Z</time>
      </trkpt>
      <trkpt lat="45.64749" lon="5.89546">
        <ele>238</ele>
        <time>2008-09-29T18:16:19Z</time>
      </trkpt>
      <trkpt lat="45.64719" lon="5.89582">
        <ele>237</ele>
        <time>2008-09-29T18:16:19Z</time>
      </trkpt>
      <trkpt lat="45.64698" lon="5.89639">
        <ele>238</ele>
        <time>2008-09-29T18:16:19Z</time>
      </trkpt>
      <trkpt lat="45.64676" lon="5.89656">
        <ele>238</ele>
        <time>2008-09-29T18:16:19Z</time>
      </trkpt>
      <trkpt lat="45.64657" lon="5.897">
        <ele>239</ele>
        <time>2008-09-29T18:16:19Z</time>
      </trkpt>
      <trkpt lat="45.6465" lon="5.89745">
        <ele>239</ele>
        <time>2008-09-29T18:16:19Z</time>
      </trkpt>
      <trkpt lat="45.64679" lon="5.8979">
        <ele>239</ele>
        <time>2008-09-29T18:16:19Z</time>
      </trkpt>
      <trkpt lat="45.64735" lon="5.89822">
        <ele>241</ele>
        <time>2008-09-29T18:16:19Z</time>
      </trkpt>
      <trkpt lat="45.64787" lon="5.89855">
        <ele>240</ele>
        <time>2008-09-29T18:16:19Z</time>
      </trkpt>
      <trkpt lat="45.64827" lon="5.89881">
        <ele>240</ele>
        <time>2008-09-29T18:16:19Z</time>
      </trkpt>
      <trkpt lat="45.64872" lon="5.8991">
        <ele>240</ele>
        <time>2008-09-29T18:16:19Z</time>
      </trkpt>
      <trkpt lat="45.64905" lon="5.89922">
        <ele>240</ele>
        <time>2008-09-29T18:16:19Z</time>
      </trkpt>
      <trkpt lat="45.6494" lon="5.89938">
        <ele>239</ele>
        <time>2008-09-29T18:16:19Z</time>
      </trkpt>
      <trkpt lat="45.64984" lon="5.89956">
        <ele>238</ele>
        <time>2008-09-29T18:16:19Z</time>
      </trkpt>
      <trkpt lat="45.6502" lon="5.89958">
        <ele>238</ele>
        <time>2008-09-29T18:16:19Z</time>
      </trkpt>
      <trkpt lat="45.65083" lon="5.89972">
        <ele>242</ele>
        <time>2008-09-29T18:16:19Z</time>
      </trkpt>
      <trkpt lat="45.65106" lon="5.89973">
        <ele>244</ele>
        <time>2008-09-29T18:16:19Z</time>
      </trkpt>
      <trkpt lat="45.65133" lon="5.89983">
        <ele>245</ele>
        <time>2008-09-29T18:16:19Z</time>
      </trkpt>
      <trkpt lat="45.65137" lon="5.89965">
        <ele>246</ele>
        <time>2008-09-29T18:16:19Z</time>
      </trkpt>
      <trkpt lat="45.65151" lon="5.89954">
        <ele>249</ele>
        <time>2008-09-29T18:16:19Z</time>
      </trkpt>
      <trkpt lat="45.65179" lon="5.89949">
        <ele>252</ele>
        <time>2008-09-29T18:16:19Z</time>
      </trkpt>
      <trkpt lat="45.65211" lon="5.89949">
        <ele>257</ele>
        <time>2008-09-29T18:16:19Z</time>
      </trkpt>
      <trkpt lat="45.65247" lon="5.89966">
        <ele>262</ele>
        <time>2008-09-29T18:16:19Z</time>
      </trkpt>
      <trkpt lat="45.65288" lon="5.89966">
        <ele>265</ele>
        <time>2008-09-29T18:16:19Z</time>
      </trkpt>
      <trkpt lat="45.6532" lon="5.89956">
        <ele>266</ele>
        <time>2008-09-29T18:16:19Z</time>
      </trkpt>
      <trkpt lat="45.65343" lon="5.8994">
        <ele>269</ele>
        <time>2008-09-29T18:16:19Z</time>
      </trkpt>
      <trkpt lat="45.65358" lon="5.89922">
        <ele>272</ele>
        <time>2008-09-29T18:16:19Z</time>
      </trkpt>
      <trkpt lat="45.65395" lon="5.89921">
        <ele>272</ele>
        <time>2008-09-29T18:16:19Z</time>
      </trkpt>
      <trkpt lat="45.65443" lon="5.89931">
        <ele>273</ele>
        <time>2008-09-29T18:16:19Z</time>
      </trkpt>
      <trkpt lat="45.65477" lon="5.89934">
        <ele>273</ele>
        <time>2008-09-29T18:16:19Z</time>
      </trkpt>
      <trkpt lat="45.65508" lon="5.89937">
        <ele>274</ele>
        <time>2008-09-29T18:16:19Z</time>
      </trkpt>
      <trkpt lat="45.65524" lon="5.89941">
        <ele>274</ele>
        <time>2008-09-29T18:16:19Z</time>
      </trkpt>
      <trkpt lat="45.65555" lon="5.89946">
        <ele>274</ele>
        <time>2008-09-29T18:16:19Z</time>
      </trkpt>
      <trkpt lat="45.6557" lon="5.89965">
        <ele>272</ele>
        <time>2008-09-29T18:16:19Z</time>
      </trkpt>
      <trkpt lat="45.65616" lon="5.89972">
        <ele>273</ele>
        <time>2008-09-29T18:16:19Z</time>
      </trkpt>
      <trkpt lat="45.65674" lon="5.89984">
        <ele>273</ele>
        <time>2008-09-29T18:16:19Z</time>
      </trkpt>
      <trkpt lat="45.6571" lon="5.89995">
        <ele>275</ele>
        <time>2008-09-29T18:16:19Z</time>
      </trkpt>
      <trkpt lat="45.65759" lon="5.89999">
        <ele>276</ele>
        <time>2008-09-29T18:16:19Z</time>
      </trkpt>
      <trkpt lat="45.65799" lon="5.90007">
        <ele>277</ele>
        <time>2008-09-29T18:16:19Z</time>
      </trkpt>
      <trkpt lat="45.65854" lon="5.90028">
        <ele>277</ele>
        <time>2008-09-29T18:16:19Z</time>
      </trkpt>
      <trkpt lat="45.65896" lon="5.90027">
        <ele>278</ele>
        <time>2008-09-29T18:16:19Z</time>
      </trkpt>
      <trkpt lat="45.65934" lon="5.90039">
        <ele>279</ele>
        <time>2008-09-29T18:16:19Z</time>
      </trkpt>
      <trkpt lat="45.65969" lon="5.9005">
        <ele>280</ele>
        <time>2008-09-29T18:16:19Z</time>
      </trkpt>
      <trkpt lat="45.66004" lon="5.9005">
        <ele>282</ele>
        <time>2008-09-29T18:16:19Z</time>
      </trkpt>
      <trkpt lat="45.66034" lon="5.90044">
        <ele>284</ele>
        <time>2008-09-29T18:16:19Z</time>
      </trkpt>
      <trkpt lat="45.66064" lon="5.90045">
        <ele>286</ele>
        <time>2008-09-29T18:16:19Z</time>
      </trkpt>
      <trkpt lat="45.66086" lon="5.90051">
        <ele>285</ele>
        <time>2008-09-29T18:16:19Z</time>
      </trkpt>
      <trkpt lat="45.66104" lon="5.90054">
        <ele>285</ele>
        <time>2008-09-29T18:16:19Z</time>
      </trkpt>
      <trkpt lat="45.66118" lon="5.90064">
        <ele>284</ele>
        <time>2008-09-29T18:16:19Z</time>
      </trkpt>
      <trkpt lat="45.66132" lon="5.90047">
        <ele>287</ele>
        <time>2008-09-29T18:16:19Z</time>
      </trkpt>
      <trkpt lat="45.66148" lon="5.90029">
        <ele>290</ele>
        <time>2008-09-29T18:16:19Z</time>
      </trkpt>
      <trkpt lat="45.66194" lon="5.90029">
        <ele>293</ele>
        <time>2008-09-29T18:16:19Z</time>
      </trkpt>
      <trkpt lat="45.66228" lon="5.90034">
        <ele>295</ele>
        <time>2008-09-29T18:16:19Z</time>
      </trkpt>
      <trkpt lat="45.66264" lon="5.90027">
        <ele>298</ele>
        <time>2008-09-29T18:16:19Z</time>
      </trkpt>
      <trkpt lat="45.66284" lon="5.90028">
        <ele>299</ele>
        <time>2008-09-29T18:16:19Z</time>
      </trkpt>
      <trkpt lat="45.663" lon="5.90057">
        <ele>295</ele>
        <time>2008-09-29T18:16:19Z</time>
      </trkpt>
      <trkpt lat="45.6633" lon="5.90076">
        <ele>292</ele>
        <time>2008-09-29T18:16:19Z</time>
      </trkpt>
      <trkpt lat="45.66375" lon="5.90065">
        <ele>296</ele>
        <time>2008-09-29T18:16:19Z</time>
      </trkpt>
      <trkpt lat="45.66409" lon="5.9008">
        <ele>294</ele>
        <time>2008-09-29T18:16:19Z</time>
      </trkpt>
      <trkpt lat="45.66421" lon="5.90081">
        <ele>294</ele>
        <time>2008-09-29T18:16:19Z</time>
      </trkpt>
      <trkpt lat="45.66443" lon="5.90084">
        <ele>293</ele>
        <time>2008-09-29T18:16:19Z</time>
      </trkpt>
      <trkpt lat="45.6644" lon="5.90114">
        <ele>289</ele>
        <time>2008-09-29T18:16:19Z</time>
      </trkpt>
      <trkpt lat="45.66438" lon="5.90143">
        <ele>286</ele>
        <time>2008-09-29T18:16:19Z</time>
      </trkpt>
      <trkpt lat="45.66476" lon="5.90163">
        <ele>285</ele>
        <time>2008-09-29T18:16:19Z</time>
      </trkpt>
      <trkpt lat="45.66515" lon="5.90164">
        <ele>285</ele>
        <time>2008-09-29T18:16:19Z</time>
      </trkpt>
      <trkpt lat="45.6656" lon="5.90181">
        <ele>283</ele>
        <time>2008-09-29T18:16:19Z</time>
      </trkpt>
      <trkpt lat="45.66699" lon="5.90219">
        <ele>280</ele>
        <time>2008-09-29T18:16:19Z</time>
      </trkpt>
      <trkpt lat="45.66726" lon="5.90224">
        <ele>280</ele>
        <time>2008-09-29T18:16:19Z</time>
      </trkpt>
      <trkpt lat="45.66751" lon="5.90221">
        <ele>281</ele>
        <time>2008-09-29T18:16:19Z</time>
      </trkpt>
      <trkpt lat="45.66782" lon="5.9021">
        <ele>285</ele>
        <time>2008-09-29T18:16:19Z</time>
      </trkpt>
      <trkpt lat="45.66809" lon="5.90204">
        <ele>289</ele>
        <time>2008-09-29T18:16:19Z</time>
      </trkpt>
      <trkpt lat="45.66838" lon="5.90199">
        <ele>291</ele>
        <time>2008-09-29T18:16:19Z</time>
      </trkpt>
      <trkpt lat="45.66862" lon="5.90199">
        <ele>292</ele>
        <time>2008-09-29T18:16:19Z</time>
      </trkpt>
      <trkpt lat="45.66882" lon="5.90192">
        <ele>295</ele>
        <time>2008-09-29T18:16:19Z</time>
      </trkpt>
      <trkpt lat="45.66901" lon="5.90168">
        <ele>303</ele>
        <time>2008-09-29T18:16:19Z</time>
      </trkpt>
      <trkpt lat="45.66913" lon="5.90127">
        <ele>314</ele>
        <time>2008-09-29T18:16:19Z</time>
      </trkpt>
      <trkpt lat="45.66919" lon="5.90081">
        <ele>318</ele>
        <time>2008-09-29T18:16:19Z</time>
      </trkpt>
      <trkpt lat="45.66935" lon="5.90026">
        <ele>319</ele>
        <time>2008-09-29T18:16:19Z</time>
      </trkpt>
      <trkpt lat="45.66935" lon="5.89981">
        <ele>318</ele>
        <time>2008-09-29T18:16:19Z</time>
      </trkpt>
      <trkpt lat="45.66966" lon="5.89991">
        <ele>319</ele>
        <time>2008-09-29T18:16:19Z</time>
      </trkpt>
      <trkpt lat="45.67003" lon="5.89979">
        <ele>318</ele>
        <time>2008-09-29T18:16:19Z</time>
      </trkpt>
      <trkpt lat="45.67037" lon="5.89979">
        <ele>318</ele>
        <time>2008-09-29T18:16:19Z</time>
      </trkpt>
      <trkpt lat="45.67074" lon="5.89983">
        <ele>320</ele>
        <time>2008-09-29T18:16:19Z</time>
      </trkpt>
      <trkpt lat="45.67105" lon="5.89982">
        <ele>321</ele>
        <time>2008-09-29T18:16:19Z</time>
      </trkpt>
      <trkpt lat="45.67135" lon="5.89968">
        <ele>321</ele>
        <time>2008-09-29T18:16:19Z</time>
      </trkpt>
      <trkpt lat="45.67164" lon="5.89971">
        <ele>321</ele>
        <time>2008-09-29T18:16:19Z</time>
      </trkpt>
      <trkpt lat="45.67194" lon="5.89981">
        <ele>322</ele>
        <time>2008-09-29T18:16:19Z</time>
      </trkpt>
      <trkpt lat="45.67229" lon="5.8998">
        <ele>321</ele>
        <time>2008-09-29T18:16:19Z</time>
      </trkpt>
      <trkpt lat="45.6727" lon="5.89983">
        <ele>322</ele>
        <time>2008-09-29T18:16:19Z</time>
      </trkpt>
      <trkpt lat="45.67303" lon="5.89987">
        <ele>322</ele>
        <time>2008-09-29T18:16:19Z</time>
      </trkpt>
      <trkpt lat="45.67352" lon="5.89974">
        <ele>322</ele>
        <time>2008-09-29T18:16:19Z</time>
      </trkpt>
      <trkpt lat="45.67379" lon="5.89985">
        <ele>323</ele>
        <time>2008-09-29T18:16:19Z</time>
      </trkpt>
      <trkpt lat="45.67418" lon="5.89989">
        <ele>323</ele>
        <time>2008-09-29T18:16:19Z</time>
      </trkpt>
      <trkpt lat="45.67446" lon="5.89996">
        <ele>324</ele>
        <time>2008-09-29T18:16:19Z</time>
      </trkpt>
      <trkpt lat="45.67474" lon="5.89999">
        <ele>325</ele>
        <time>2008-09-29T18:16:19Z</time>
      </trkpt>
      <trkpt lat="45.67519" lon="5.90004">
        <ele>328</ele>
        <time>2008-09-29T18:16:19Z</time>
      </trkpt>
      <trkpt lat="45.67547" lon="5.90003">
        <ele>329</ele>
        <time>2008-09-29T18:16:19Z</time>
      </trkpt>
      <trkpt lat="45.67583" lon="5.90003">
        <ele>329</ele>
        <time>2008-09-29T18:16:19Z</time>
      </trkpt>
      <trkpt lat="45.67622" lon="5.90012">
        <ele>329</ele>
        <time>2008-09-29T18:16:19Z</time>
      </trkpt>
      <trkpt lat="45.67661" lon="5.90005">
        <ele>330</ele>
        <time>2008-09-29T18:16:19Z</time>
      </trkpt>
      <trkpt lat="45.67688" lon="5.9">
        <ele>329</ele>
        <time>2008-09-29T18:16:19Z</time>
      </trkpt>
      <trkpt lat="45.67725" lon="5.90001">
        <ele>328</ele>
        <time>2008-09-29T18:16:19Z</time>
      </trkpt>
      <trkpt lat="45.67761" lon="5.90005">
        <ele>327</ele>
        <time>2008-09-29T18:16:19Z</time>
      </trkpt>
      <trkpt lat="45.67804" lon="5.90013">
        <ele>326</ele>
        <time>2008-09-29T18:16:19Z</time>
      </trkpt>
      <trkpt lat="45.67839" lon="5.90018">
        <ele>326</ele>
        <time>2008-09-29T18:16:19Z</time>
      </trkpt>
      <trkpt lat="45.67874" lon="5.90022">
        <ele>327</ele>
        <time>2008-09-29T18:16:19Z</time>
      </trkpt>
      <trkpt lat="45.67903" lon="5.90021">
        <ele>327</ele>
        <time>2008-09-29T18:16:19Z</time>
      </trkpt>
      <trkpt lat="45.67962" lon="5.90026">
        <ele>328</ele>
        <time>2008-09-29T18:16:19Z</time>
      </trkpt>
      <trkpt lat="45.67994" lon="5.90028">
        <ele>329</ele>
        <time>2008-09-29T18:16:19Z</time>
      </trkpt>
      <trkpt lat="45.68021" lon="5.9004">
        <ele>330</ele>
        <time>2008-09-29T18:16:19Z</time>
      </trkpt>
      <trkpt lat="45.68055" lon="5.9004">
        <ele>330</ele>
        <time>2008-09-29T18:16:19Z</time>
      </trkpt>
      <trkpt lat="45.68076" lon="5.90034">
        <ele>329</ele>
        <time>2008-09-29T18:16:19Z</time>
      </trkpt>
      <trkpt lat="45.68099" lon="5.90035">
        <ele>329</ele>
        <time>2008-09-29T18:16:19Z</time>
      </trkpt>
      <trkpt lat="45.68094" lon="5.90007">
        <ele>328</ele>
        <time>2008-09-29T18:16:19Z</time>
      </trkpt>
      <trkpt lat="45.68104" lon="5.89981">
        <ele>326</ele>
        <time>2008-09-29T18:16:19Z</time>
      </trkpt>
      <trkpt lat="45.68114" lon="5.89957">
        <ele>324</ele>
        <time>2008-09-29T18:16:19Z</time>
      </trkpt>
      <trkpt lat="45.68121" lon="5.89939">
        <ele>323</ele>
        <time>2008-09-29T18:16:19Z</time>
      </trkpt>
      <trkpt lat="45.68141" lon="5.89921">
        <ele>321</ele>
        <time>2008-09-29T18:16:19Z</time>
      </trkpt>
      <trkpt lat="45.6816" lon="5.89922">
        <ele>321</ele>
        <time>2008-09-29T18:16:19Z</time>
      </trkpt>
      <trkpt lat="45.68186" lon="5.89917">
        <ele>321</ele>
        <time>2008-09-29T18:16:19Z</time>
      </trkpt>
      <trkpt lat="45.68217" lon="5.89913">
        <ele>321</ele>
        <time>2008-09-29T18:16:19Z</time>
      </trkpt>
      <trkpt lat="45.68242" lon="5.89908">
        <ele>321</ele>
        <time>2008-09-29T18:16:19Z</time>
      </trkpt>
      <trkpt lat="45.68276" lon="5.89897">
        <ele>319</ele>
        <time>2008-09-29T18:16:19Z</time>
      </trkpt>
      <trkpt lat="45.68301" lon="5.89876">
        <ele>317</ele>
        <time>2008-09-29T18:16:19Z</time>
      </trkpt>
      <trkpt lat="45.68323" lon="5.89855">
        <ele>315</ele>
        <time>2008-09-29T18:16:19Z</time>
      </trkpt>
      <trkpt lat="45.68342" lon="5.89842">
        <ele>314</ele>
        <time>2008-09-29T18:16:19Z</time>
      </trkpt>
      <trkpt lat="45.68358" lon="5.89819">
        <ele>313</ele>
        <time>2008-09-29T18:16:19Z</time>
      </trkpt>
      <trkpt lat="45.68374" lon="5.89809">
        <ele>312</ele>
        <time>2008-09-29T18:16:19Z</time>
      </trkpt>
      <trkpt lat="45.68425" lon="5.89802">
        <ele>312</ele>
        <time>2008-09-29T18:16:19Z</time>
      </trkpt>
      <trkpt lat="45.68478" lon="5.89793">
        <ele>311</ele>
        <time>2008-09-29T18:16:19Z</time>
      </trkpt>
      <trkpt lat="45.68526" lon="5.89786">
        <ele>309</ele>
        <time>2008-09-29T18:16:19Z</time>
      </trkpt>
      <trkpt lat="45.68593" lon="5.89762">
        <ele>305</ele>
        <time>2008-09-29T18:16:19Z</time>
      </trkpt>
      <trkpt lat="45.68649" lon="5.89749">
        <ele>302</ele>
        <time>2008-09-29T18:16:19Z</time>
      </trkpt>
      <trkpt lat="45.68702" lon="5.89732">
        <ele>299</ele>
        <time>2008-09-29T18:16:19Z</time>
      </trkpt>
      <trkpt lat="45.68771" lon="5.89719">
        <ele>296</ele>
        <time>2008-09-29T18:16:19Z</time>
      </trkpt>
      <trkpt lat="45.68802" lon="5.89718">
        <ele>294</ele>
        <time>2008-09-29T18:16:19Z</time>
      </trkpt>
      <trkpt lat="45.68843" lon="5.89711">
        <ele>290</ele>
        <time>2008-09-29T18:16:19Z</time>
      </trkpt>
      <trkpt lat="45.68874" lon="5.89713">
        <ele>287</ele>
        <time>2008-09-29T18:16:19Z</time>
      </trkpt>
      <trkpt lat="45.68896" lon="5.89716">
        <ele>286</ele>
        <time>2008-09-29T18:16:19Z</time>
      </trkpt>
      <trkpt lat="45.68909" lon="5.89724">
        <ele>287</ele>
        <time>2008-09-29T18:16:19Z</time>
      </trkpt>
      <trkpt lat="45.68925" lon="5.89729">
        <ele>287</ele>
        <time>2008-09-29T18:16:19Z</time>
      </trkpt>
      <trkpt lat="45.68946" lon="5.89732">
        <ele>286</ele>
        <time>2008-09-29T18:16:19Z</time>
      </trkpt>
      <trkpt lat="45.68987" lon="5.89725">
        <ele>283</ele>
        <time>2008-09-29T18:16:19Z</time>
      </trkpt>
      <trkpt lat="45.69033" lon="5.89726">
        <ele>282</ele>
        <time>2008-09-29T18:16:19Z</time>
      </trkpt>
      <trkpt lat="45.69068" lon="5.8972">
        <ele>277</ele>
        <time>2008-09-29T18:16:19Z</time>
      </trkpt>
      <trkpt lat="45.69102" lon="5.89714">
        <ele>272</ele>
        <time>2008-09-29T18:16:19Z</time>
      </trkpt>
      <trkpt lat="45.69133" lon="5.89713">
        <ele>267</ele>
        <time>2008-09-29T18:16:19Z</time>
      </trkpt>
      <trkpt lat="45.69165" lon="5.89709">
        <ele>262</ele>
        <time>2008-09-29T18:16:19Z</time>
      </trkpt>
      <trkpt lat="45.69191" lon="5.89699">
        <ele>256</ele>
        <time>2008-09-29T18:16:19Z</time>
      </trkpt>
      <trkpt lat="45.69212" lon="5.89691">
        <ele>250</ele>
        <time>2008-09-29T18:16:19Z</time>
      </trkpt>
      <trkpt lat="45.69246" lon="5.89674">
        <ele>244</ele>
        <time>2008-09-29T18:16:19Z</time>
      </trkpt>
      <trkpt lat="45.69261" lon="5.89675">
        <ele>243</ele>
        <time>2008-09-29T18:16:19Z</time>
      </trkpt>
      <trkpt lat="45.69304" lon="5.89668">
        <ele>240</ele>
        <time>2008-09-29T18:16:19Z</time>
      </trkpt>
      <trkpt lat="45.69315" lon="5.89661">
        <ele>239</ele>
        <time>2008-09-29T18:16:19Z</time>
      </trkpt>
      <trkpt lat="45.6932" lon="5.89653">
        <ele>238</ele>
        <time>2008-09-29T18:16:19Z</time>
      </trkpt>
      <trkpt lat="45.69332" lon="5.89633">
        <ele>237</ele>
        <time>2008-09-29T18:16:19Z</time>
      </trkpt>
      <trkpt lat="45.69338" lon="5.89622">
        <ele>237</ele>
        <time>2008-09-29T18:16:19Z</time>
      </trkpt>
      <trkpt lat="45.69356" lon="5.8962">
        <ele>237</ele>
        <time>2008-09-29T18:16:19Z</time>
      </trkpt>
      <trkpt lat="45.69385" lon="5.89616">
        <ele>236</ele>
        <time>2008-09-29T18:16:19Z</time>
      </trkpt>
      <trkpt lat="45.69407" lon="5.89619">
        <ele>236</ele>
        <time>2008-09-29T18:16:19Z</time>
      </trkpt>
      <trkpt lat="45.6944" lon="5.89621">
        <ele>236</ele>
        <time>2008-09-29T18:16:19Z</time>
      </trkpt>
      <trkpt lat="45.69471" lon="5.8961">
        <ele>236</ele>
        <time>2008-09-29T18:16:19Z</time>
      </trkpt>
      <trkpt lat="45.69505" lon="5.89604">
        <ele>236</ele>
        <time>2008-09-29T18:16:19Z</time>
      </trkpt>
      <trkpt lat="45.69536" lon="5.89604">
        <ele>236</ele>
        <time>2008-09-29T18:16:19Z</time>
      </trkpt>
      <trkpt lat="45.69567" lon="5.896">
        <ele>236</ele>
        <time>2008-09-29T18:16:19Z</time>
      </trkpt>
      <trkpt lat="45.69583" lon="5.89598">
        <ele>236</ele>
        <time>2008-09-29T18:16:19Z</time>
      </trkpt>
      <trkpt lat="45.69656" lon="5.89588">
        <ele>237</ele>
        <time>2008-09-29T18:16:19Z</time>
      </trkpt>
      <trkpt lat="45.69695" lon="5.89583">
        <ele>238</ele>
        <time>2008-09-29T18:16:19Z</time>
      </trkpt>
      <trkpt lat="45.69728" lon="5.8957">
        <ele>238</ele>
        <time>2008-09-29T18:16:19Z</time>
      </trkpt>
      <trkpt lat="45.69764" lon="5.89558">
        <ele>238</ele>
        <time>2008-09-29T18:16:19Z</time>
      </trkpt>
      <trkpt lat="45.69789" lon="5.89548">
        <ele>239</ele>
        <time>2008-09-29T18:16:19Z</time>
      </trkpt>
      <trkpt lat="45.69802" lon="5.89546">
        <ele>239</ele>
        <time>2008-09-29T18:16:19Z</time>
      </trkpt>
      <trkpt lat="45.69818" lon="5.89537">
        <ele>239</ele>
        <time>2008-09-29T18:16:19Z</time>
      </trkpt>
      <trkpt lat="45.69814" lon="5.89486">
        <ele>238</ele>
        <time>2008-09-29T18:16:19Z</time>
      </trkpt>
      <trkpt lat="45.69814" lon="5.8945">
        <ele>238</ele>
        <time>2008-09-29T18:16:19Z</time>
      </trkpt>
      <trkpt lat="45.69814" lon="5.89406">
        <ele>238</ele>
        <time>2008-09-29T18:16:19Z</time>
      </trkpt>
      <trkpt lat="45.69821" lon="5.89358">
        <ele>237</ele>
        <time>2008-09-29T18:16:19Z</time>
      </trkpt>
      <trkpt lat="45.69827" lon="5.89313">
        <ele>237</ele>
        <time>2008-09-29T18:16:19Z</time>
      </trkpt>
      <trkpt lat="45.69834" lon="5.89283">
        <ele>236</ele>
        <time>2008-09-29T18:16:19Z</time>
      </trkpt>
      <trkpt lat="45.69852" lon="5.89273">
        <ele>237</ele>
        <time>2008-09-29T18:16:19Z</time>
      </trkpt>
      <trkpt lat="45.69884" lon="5.89256">
        <ele>237</ele>
        <time>2008-09-29T18:16:19Z</time>
      </trkpt>
      <trkpt lat="45.69909" lon="5.89245">
        <ele>237</ele>
        <time>2008-09-29T18:16:19Z</time>
      </trkpt>
      <trkpt lat="45.69939" lon="5.89242">
        <ele>237</ele>
        <time>2008-09-29T18:16:19Z</time>
      </trkpt>
      <trkpt lat="45.69966" lon="5.89235">
        <ele>237</ele>
        <time>2008-09-29T18:16:19Z</time>
      </trkpt>
      <trkpt lat="45.70023" lon="5.89209">
        <ele>238</ele>
      </trkpt>
      <trkpt lat="45.70109" lon="5.89199">
        <ele>239</ele>
      </trkpt>
      <trkpt lat="45.70134" lon="5.89189">
        <ele>238</ele>
      </trkpt>
      <trkpt lat="45.7015" lon="5.89204">
        <ele>238</ele>
      </trkpt>
      <trkpt lat="45.70179" lon="5.89388">
        <ele>239</ele>
      </trkpt>
      <trkpt lat="45.70181" lon="5.89405">
        <ele>239</ele>
      </trkpt>
      <trkpt lat="45.70173" lon="5.89431">
        <ele>239</ele>
      </trkpt>
      <trkpt lat="45.70205" lon="5.89545">
        <ele>239</ele>
      </trkpt>
      <trkpt lat="45.70268" lon="5.89672">
        <ele>242</ele>
      </trkpt>
      <trkpt lat="45.70335" lon="5.89787">
        <ele>244</ele>
      </trkpt>
      <trkpt lat="45.70366" lon="5.89843">
        <ele>245</ele>
      </trkpt>
      <trkpt lat="45.70384" lon="5.89861">
        <ele>244</ele>
      </trkpt>
      <trkpt lat="45.70401" lon="5.89866">
        <ele>244</ele>
      </trkpt>
      <trkpt lat="45.70433" lon="5.89881">
        <ele>244</ele>
      </trkpt>
      <trkpt lat="45.70454" lon="5.89886">
        <ele>244</ele>
      </trkpt>
      <trkpt lat="45.70509" lon="5.89844">
        <ele>245</ele>
      </trkpt>
      <trkpt lat="45.70526" lon="5.89847">
        <ele>245</ele>
      </trkpt>
      <trkpt lat="45.70547" lon="5.89911">
        <ele>247</ele>
      </trkpt>
      <trkpt lat="45.70557" lon="5.89922">
        <ele>249</ele>
      </trkpt>
      <trkpt lat="45.70588" lon="5.89939">
        <ele>256</ele>
      </trkpt>
      <trkpt lat="45.7061" lon="5.89934">
        <ele>258</ele>
      </trkpt>
      <trkpt lat="45.70666" lon="5.89899">
        <ele>258</ele>
      </trkpt>
      <trkpt lat="45.70704" lon="5.89852">
        <ele>266</ele>
      </trkpt>
      <trkpt lat="45.70755" lon="5.89816">
        <ele>277</ele>
      </trkpt>
      <trkpt lat="45.70764" lon="5.89795">
        <ele>277</ele>
      </trkpt>
      <trkpt lat="45.70801" lon="5.8972">
        <ele>272</ele>
      </trkpt>
      <trkpt lat="45.70838" lon="5.89679">
        <ele>282</ele>
      </trkpt>
      <trkpt lat="45.70851" lon="5.89671">
        <ele>284</ele>
      </trkpt>
      <trkpt lat="45.7088" lon="5.89644">
        <ele>275</ele>
      </trkpt>
      <trkpt lat="45.70925" lon="5.89633">
        <ele>289</ele>
      </trkpt>
      <trkpt lat="45.70987" lon="5.89635">
        <ele>294</ele>
      </trkpt>
      <trkpt lat="45.7104" lon="5.89633">
        <ele>307</ele>
      </trkpt>
      <trkpt lat="45.71072" lon="5.8962">
        <ele>308</ele>
      </trkpt>
      <trkpt lat="45.71086" lon="5.89604">
        <ele>314</ele>
      </trkpt>
      <trkpt lat="45.71097" lon="5.89594">
        <ele>313</ele>
      </trkpt>
      <trkpt lat="45.71113" lon="5.89583">
        <ele>299</ele>
      </trkpt>
      <trkpt lat="45.71201" lon="5.8956">
        <ele>309</ele>
      </trkpt>
      <trkpt lat="45.71235" lon="5.89553">
        <ele>310</ele>
      </trkpt>
      <trkpt lat="45.7134" lon="5.89555">
        <ele>321</ele>
      </trkpt>
      <trkpt lat="45.71432" lon="5.89554">
        <ele>323</ele>
      </trkpt>
      <trkpt lat="45.71498" lon="5.89575">
        <ele>329</ele>
      </trkpt>
      <trkpt lat="45.71524" lon="5.89586">
        <ele>340</ele>
      </trkpt>
      <trkpt lat="45.71544" lon="5.89588">
        <ele>341</ele>
      </trkpt>
      <trkpt lat="45.71562" lon="5.89589">
        <ele>339</ele>
      </trkpt>
      <trkpt lat="45.71557" lon="5.89589">
        <ele>340</ele>
      </trkpt>
      <trkpt lat="45.71528" lon="5.89587">
        <ele>341</ele>
      </trkpt>
      <trkpt lat="45.71512" lon="5.89586">
        <ele>338</ele>
      </trkpt>
      <trkpt lat="45.71475" lon="5.89596">
        <ele>343</ele>
      </trkpt>
      <trkpt lat="45.7146" lon="5.89603">
        <ele>345</ele>
      </trkpt>
      <trkpt lat="45.71464" lon="5.89623">
        <ele>348</ele>
      </trkpt>
      <trkpt lat="45.71492" lon="5.89627">
        <ele>348</ele>
      </trkpt>
      <trkpt lat="45.71528" lon="5.89636">
        <ele>349</ele>
      </trkpt>
      <trkpt lat="45.71544" lon="5.89641">
        <ele>349</ele>
      </trkpt>
      <trkpt lat="45.7154" lon="5.89645">
        <ele>350</ele>
      </trkpt>
      <trkpt lat="45.71485" lon="5.89681">
        <ele>366</ele>
      </trkpt>
      <trkpt lat="45.71468" lon="5.89691">
        <ele>367</ele>
      </trkpt>
      <trkpt lat="45.71458" lon="5.8972">
        <ele>370</ele>
      </trkpt>
      <trkpt lat="45.71471" lon="5.89731">
        <ele>371</ele>
      </trkpt>
      <trkpt lat="45.71473" lon="5.89755">
        <ele>377</ele>
      </trkpt>
      <trkpt lat="45.71497" lon="5.89837">
        <ele>380</ele>
      </trkpt>
      <trkpt lat="45.7153" lon="5.89929">
        <ele>379</ele>
      </trkpt>
      <trkpt lat="45.7153" lon="5.89958">
        <ele>379</ele>
      </trkpt>
      <trkpt lat="45.71519" lon="5.89971">
        <ele>379</ele>
      </trkpt>
      <trkpt lat="45.71415" lon="5.90029">
        <ele>380</ele>
      </trkpt>
      <trkpt lat="45.71359" lon="5.90063">
        <ele>378</ele>
      </trkpt>
      <trkpt lat="45.71359" lon="5.90083">
        <ele>378</ele>
      </trkpt>
      <trkpt lat="45.71365" lon="5.90112">
        <ele>380</ele>
      </trkpt>
      <trkpt lat="45.71375" lon="5.90124">
        <ele>381</ele>
      </trkpt>
      <trkpt lat="45.71396" lon="5.90125">
        <ele>382</ele>
      </trkpt>
      <trkpt lat="45.71416" lon="5.9012">
        <ele>382</ele>
      </trkpt>
      <trkpt lat="45.71527" lon="5.9011">
        <ele>388</ele>
      </trkpt>
      <trkpt lat="45.71566" lon="5.90098">
        <ele>387</ele>
      </trkpt>
      <trkpt lat="45.71579" lon="5.90082">
        <ele>384</ele>
      </trkpt>
      <trkpt lat="45.71587" lon="5.9007">
        <ele>383</ele>
      </trkpt>
      <trkpt lat="45.71597" lon="5.90056">
        <ele>382</ele>
      </trkpt>
      <trkpt lat="45.71694" lon="5.89998">
        <ele>380</ele>
      </trkpt>
      <trkpt lat="45.71722" lon="5.89985">
        <ele>382</ele>
      </trkpt>
      <trkpt lat="45.71736" lon="5.89976">
        <ele>382</ele>
      </trkpt>
      <trkpt lat="45.71764" lon="5.89938">
        <ele>386</ele>
      </trkpt>
      <trkpt lat="45.71799" lon="5.89914">
        <ele>384</ele>
      </trkpt>
      <trkpt lat="45.71808" lon="5.89912">
        <ele>386</ele>
      </trkpt>
      <trkpt lat="45.7184" lon="5.89889">
        <ele>394</ele>
      </trkpt>
      <trkpt lat="45.71859" lon="5.89884">
        <ele>394</ele>
      </trkpt>
      <trkpt lat="45.71912" lon="5.89865">
        <ele>394</ele>
      </trkpt>
      <trkpt lat="45.71975" lon="5.89861">
        <ele>402</ele>
      </trkpt>
      <trkpt lat="45.71998" lon="5.89864">
        <ele>403</ele>
      </trkpt>
      <trkpt lat="45.72018" lon="5.89867">
        <ele>409</ele>
      </trkpt>
      <trkpt lat="45.72027" lon="5.89864">
        <ele>409</ele>
      </trkpt>
      <trkpt lat="45.72062" lon="5.89862">
        <ele>411</ele>
      </trkpt>
      <trkpt lat="45.7208" lon="5.8986">
        <ele>411</ele>
      </trkpt>
      <trkpt lat="45.72094" lon="5.89858">
        <ele>415</ele>
      </trkpt>
      <trkpt lat="45.72122" lon="5.89857">
        <ele>417</ele>
      </trkpt>
      <trkpt lat="45.72147" lon="5.89859">
        <ele>418</ele>
      </trkpt>
      <trkpt lat="45.72173" lon="5.89854">
        <ele>419</ele>
      </trkpt>
      <trkpt lat="45.72216" lon="5.89861">
        <ele>420</ele>
      </trkpt>
      <trkpt lat="45.72234" lon="5.89874">
        <ele>421</ele>
      </trkpt>
      <trkpt lat="45.72269" lon="5.89844">
        <ele>414</ele>
      </trkpt>
      <trkpt lat="45.72293" lon="5.89823">
        <ele>402</ele>
      </trkpt>
      <trkpt lat="45.72356" lon="5.89777">
        <ele>389</ele>
      </trkpt>
      <trkpt lat="45.72396" lon="5.89734">
        <ele>376</ele>
      </trkpt>
      <trkpt lat="45.72414" lon="5.89732">
        <ele>376</ele>
      </trkpt>
      <trkpt lat="45.72451" lon="5.89701">
        <ele>369</ele>
      </trkpt>
      <trkpt lat="45.7246" lon="5.89692">
        <ele>369</ele>
      </trkpt>
      <trkpt lat="45.72473" lon="5.89713">
        <ele>369</ele>
      </trkpt>
      <trkpt lat="45.72493" lon="5.89761">
        <ele>372</ele>
      </trkpt>
      <trkpt lat="45.725" lon="5.8979">
        <ele>376</ele>
      </trkpt>
      <trkpt lat="45.72515" lon="5.89807">
        <ele>373</ele>
      </trkpt>
      <trkpt lat="45.72537" lon="5.8981">
        <ele>373</ele>
      </trkpt>
      <trkpt lat="45.72575" lon="5.89813">
        <ele>373</ele>
      </trkpt>
      <trkpt lat="45.72586" lon="5.89828">
        <ele>374</ele>
      </trkpt>
      <trkpt lat="45.72595" lon="5.8985">
        <ele>378</ele>
      </trkpt>
      <trkpt lat="45.72598" lon="5.8986">
        <ele>380</ele>
      </trkpt>
      <trkpt lat="45.72616" lon="5.89875">
        <ele>381</ele>
      </trkpt>
      <trkpt lat="45.72631" lon="5.89887">
        <ele>383</ele>
      </trkpt>
      <trkpt lat="45.72703" lon="5.89903">
        <ele>392</ele>
      </trkpt>
      <trkpt lat="45.72719" lon="5.89899">
        <ele>393</ele>
      </trkpt>
      <trkpt lat="45.72739" lon="5.89872">
        <ele>390</ele>
      </trkpt>
      <trkpt lat="45.728" lon="5.89864">
        <ele>395</ele>
      </trkpt>
      <trkpt lat="45.7282" lon="5.89866">
        <ele>396</ele>
      </trkpt>
      <trkpt lat="45.72826" lon="5.89874">
        <ele>397</ele>
      </trkpt>
      <trkpt lat="45.72853" lon="5.89889">
        <ele>403</ele>
      </trkpt>
      <trkpt lat="45.72915" lon="5.89896">
        <ele>407</ele>
      </trkpt>
      <trkpt lat="45.72943" lon="5.89906">
        <ele>407</ele>
      </trkpt>
      <trkpt lat="45.73002" lon="5.89899">
        <ele>409</ele>
      </trkpt>
      <trkpt lat="45.73035" lon="5.89906">
        <ele>408</ele>
      </trkpt>
      <trkpt lat="45.73067" lon="5.89906">
        <ele>411</ele>
      </trkpt>
      <trkpt lat="45.73084" lon="5.89915">
        <ele>421</ele>
      </trkpt>
      <trkpt lat="45.73123" lon="5.89922">
        <ele>426</ele>
      </trkpt>
      <trkpt lat="45.73163" lon="5.89922">
        <ele>418</ele>
      </trkpt>
      <trkpt lat="45.73189" lon="5.89922">
        <ele>418</ele>
      </trkpt>
      <trkpt lat="45.73201" lon="5.89933">
        <ele>419</ele>
      </trkpt>
      <trkpt lat="45.7322" lon="5.89986">
        <ele>425</ele>
      </trkpt>
      <trkpt lat="45.73236" lon="5.89994">
        <ele>427</ele>
      </trkpt>
      <trkpt lat="45.733" lon="5.90001">
        <ele>445</ele>
      </trkpt>
      <trkpt lat="45.73371" lon="5.89985">
        <ele>436</ele>
      </trkpt>
      <trkpt lat="45.73384" lon="5.89977">
        <ele>437</ele>
      </trkpt>
      <trkpt lat="45.73429" lon="5.89956">
        <ele>442</ele>
      </trkpt>
      <trkpt lat="45.73455" lon="5.89957">
        <ele>444</ele>
      </trkpt>
      <trkpt lat="45.73475" lon="5.89972">
        <ele>447</ele>
      </trkpt>
      <trkpt lat="45.73529" lon="5.89971">
        <ele>454</ele>
      </trkpt>
      <trkpt lat="45.73598" lon="5.89956">
        <ele>461</ele>
      </trkpt>
      <trkpt lat="45.73671" lon="5.89944">
        <ele>469</ele>
      </trkpt>
      <trkpt lat="45.73729" lon="5.89943">
        <ele>474</ele>
      </trkpt>
      <trkpt lat="45.73776" lon="5.89943">
        <ele>487</ele>
      </trkpt>
      <trkpt lat="45.73792" lon="5.89949">
        <ele>490</ele>
      </trkpt>
      <trkpt lat="45.73824" lon="5.89944">
        <ele>491</ele>
      </trkpt>
      <trkpt lat="45.73838" lon="5.89942">
        <ele>500</ele>
      </trkpt>
      <trkpt lat="45.7387" lon="5.89927">
        <ele>503</ele>
      </trkpt>
      <trkpt lat="45.73886" lon="5.89919">
        <ele>505</ele>
      </trkpt>
      <trkpt lat="45.73914" lon="5.89908">
        <ele>496</ele>
      </trkpt>
      <trkpt lat="45.73927" lon="5.89903">
        <ele>502</ele>
      </trkpt>
      <trkpt lat="45.73946" lon="5.8989">
        <ele>503</ele>
      </trkpt>
      <trkpt lat="45.73962" lon="5.89882">
        <ele>504</ele>
      </trkpt>
      <trkpt lat="45.73995" lon="5.89876">
        <ele>507</ele>
      </trkpt>
      <trkpt lat="45.74018" lon="5.89878">
        <ele>524</ele>
      </trkpt>
      <trkpt lat="45.7404" lon="5.89872">
        <ele>526</ele>
      </trkpt>
      <trkpt lat="45.74057" lon="5.89845">
        <ele>526</ele>
      </trkpt>
      <trkpt lat="45.74061" lon="5.89826">
        <ele>509</ele>
      </trkpt>
      <trkpt lat="45.7408" lon="5.89815">
        <ele>511</ele>
      </trkpt>
      <trkpt lat="45.74088" lon="5.89823">
        <ele>526</ele>
      </trkpt>
      <trkpt lat="45.74076" lon="5.89911">
        <ele>544</ele>
      </trkpt>
      <trkpt lat="45.74066" lon="5.89933">
        <ele>553</ele>
      </trkpt>
      <trkpt lat="45.74052" lon="5.89952">
        <ele>555</ele>
      </trkpt>
      <trkpt lat="45.7404" lon="5.89967">
        <ele>555</ele>
      </trkpt>
      <trkpt lat="45.74016" lon="5.89995">
        <ele>556</ele>
      </trkpt>
      <trkpt lat="45.73996" lon="5.90006">
        <ele>558</ele>
      </trkpt>
      <trkpt lat="45.73981" lon="5.90012">
        <ele>560</ele>
      </trkpt>
      <trkpt lat="45.73962" lon="5.9005">
        <ele>565</ele>
      </trkpt>
      <trkpt lat="45.73952" lon="5.90058">
        <ele>565</ele>
      </trkpt>
      <trkpt lat="45.73923" lon="5.90105">
        <ele>581</ele>
      </trkpt>
      <trkpt lat="45.73907" lon="5.90115">
        <ele>575</ele>
      </trkpt>
      <trkpt lat="45.73895" lon="5.90135">
        <ele>578</ele>
      </trkpt>
      <trkpt lat="45.73881" lon="5.90144">
        <ele>578</ele>
      </trkpt>
      <trkpt lat="45.73853" lon="5.90149">
        <ele>578</ele>
      </trkpt>
      <trkpt lat="45.73857" lon="5.90158">
        <ele>578</ele>
      </trkpt>
      <trkpt lat="45.73859" lon="5.90177">
        <ele>593</ele>
      </trkpt>
      <trkpt lat="45.73843" lon="5.90194">
        <ele>594</ele>
      </trkpt>
      <trkpt lat="45.73819" lon="5.90204">
        <ele>590</ele>
      </trkpt>
      <trkpt lat="45.73795" lon="5.90208">
        <ele>590</ele>
      </trkpt>
      <trkpt lat="45.73778" lon="5.90214">
        <ele>590</ele>
      </trkpt>
      <trkpt lat="45.73756" lon="5.90234">
        <ele>594</ele>
      </trkpt>
      <trkpt lat="45.73739" lon="5.90258">
        <ele>599</ele>
      </trkpt>
      <trkpt lat="45.73696" lon="5.90286">
        <ele>597</ele>
      </trkpt>
      <trkpt lat="45.73677" lon="5.90303">
        <ele>599</ele>
      </trkpt>
      <trkpt lat="45.73651" lon="5.90344">
        <ele>609</ele>
      </trkpt>
      <trkpt lat="45.73635" lon="5.90367">
        <ele>614</ele>
      </trkpt>
      <trkpt lat="45.73598" lon="5.90419">
        <ele>633</ele>
      </trkpt>
      <trkpt lat="45.73544" lon="5.90498">
        <ele>641</ele>
      </trkpt>
      <trkpt lat="45.7358" lon="5.90498">
        <ele>644</ele>
      </trkpt>
      <trkpt lat="45.73651" lon="5.90502">
        <ele>660</ele>
      </trkpt>
      <trkpt lat="45.73688" lon="5.90496">
        <ele>671</ele>
      </trkpt>
      <trkpt lat="45.73731" lon="5.90465">
        <ele>679</ele>
      </trkpt>
      <trkpt lat="45.73789" lon="5.90474">
        <ele>679</ele>
      </trkpt>
      <trkpt lat="45.7386" lon="5.90513">
        <ele>678</ele>
      </trkpt>
      <trkpt lat="45.73895" lon="5.90595">
        <ele>686</ele>
      </trkpt>
      <trkpt lat="45.739" lon="5.90673">
        <ele>692</ele>
      </trkpt>
      <trkpt lat="45.73954" lon="5.90649">
        <ele>701</ele>
      </trkpt>
      <trkpt lat="45.73995" lon="5.90586">
        <ele>705</ele>
      </trkpt>
      <trkpt lat="45.74035" lon="5.90571">
        <ele>706</ele>
      </trkpt>
      <trkpt lat="45.74076" lon="5.90561">
        <ele>708</ele>
      </trkpt>
      <trkpt lat="45.74139" lon="5.90481">
        <ele>713</ele>
      </trkpt>
      <trkpt lat="45.74169" lon="5.90422">
        <ele>718</ele>
      </trkpt>
      <trkpt lat="45.74187" lon="5.90361">
        <ele>721</ele>
      </trkpt>
      <trkpt lat="45.74236" lon="5.90302">
        <ele>722</ele>
      </trkpt>
      <trkpt lat="45.74278" lon="5.90256">
        <ele>716</ele>
      </trkpt>
      <trkpt lat="45.74335" lon="5.90256">
        <ele>719</ele>
      </trkpt>
      <trkpt lat="45.744" lon="5.9026">
        <ele>724</ele>
      </trkpt>
      <trkpt lat="45.74449" lon="5.90316">
        <ele>744</ele>
      </trkpt>
      <trkpt lat="45.7446" lon="5.90398">
        <ele>765</ele>
      </trkpt>
      <trkpt lat="45.74487" lon="5.90492">
        <ele>789</ele>
      </trkpt>
      <trkpt lat="45.74507" lon="5.90527">
        <ele>793</ele>
      </trkpt>
      <trkpt lat="45.74545" lon="5.90567">
        <ele>802</ele>
      </trkpt>
      <trkpt lat="45.74566" lon="5.90491">
        <ele>825</ele>
      </trkpt>
      <trkpt lat="45.74593" lon="5.90422">
        <ele>839</ele>
      </trkpt>
      <trkpt lat="45.74638" lon="5.90363">
        <ele>840</ele>
      </trkpt>
      <trkpt lat="45.74679" lon="5.90276">
        <ele>839</ele>
      </trkpt>
      <trkpt lat="45.74706" lon="5.90203">
        <ele>839</ele>
      </trkpt>
      <trkpt lat="45.74722" lon="5.90115">
        <ele>841</ele>
      </trkpt>
      <trkpt lat="45.74751" lon="5.90045">
        <ele>840</ele>
      </trkpt>
      <trkpt lat="45.74786" lon="5.89977">
        <ele>840</ele>
      </trkpt>
      <trkpt lat="45.74823" lon="5.89917">
        <ele>839</ele>
      </trkpt>
      <trkpt lat="45.74859" lon="5.89873">
        <ele>838</ele>
      </trkpt>
      <trkpt lat="45.74881" lon="5.8981">
        <ele>831</ele>
      </trkpt>
      <trkpt lat="45.7492" lon="5.89776">
        <ele>832</ele>
      </trkpt>
      <trkpt lat="45.74947" lon="5.89753">
        <ele>834</ele>
      </trkpt>
      <trkpt lat="45.75" lon="5.89706">
        <ele>833</ele>
      </trkpt>
      <trkpt lat="45.75059" lon="5.89695">
        <ele>821</ele>
      </trkpt>
      <trkpt lat="45.75128" lon="5.89646">
        <ele>822</ele>
      </trkpt>
      <trkpt lat="45.75171" lon="5.8956">
        <ele>836</ele>
      </trkpt>
      <trkpt lat="45.75234" lon="5.89503">
        <ele>826</ele>
      </trkpt>
      <trkpt lat="45.7528" lon="5.89462">
        <ele>818</ele>
      </trkpt>
      <trkpt lat="45.75327" lon="5.89416">
        <ele>820</ele>
      </trkpt>
      <trkpt lat="45.754" lon="5.89355">
        <ele>815</ele>
      </trkpt>
      <trkpt lat="45.75472" lon="5.89261">
        <ele>794</ele>
      </trkpt>
      <trkpt lat="45.75531" lon="5.89185">
        <ele>787</ele>
      </trkpt>
      <trkpt lat="45.75607" lon="5.89181">
        <ele>777</ele>
      </trkpt>
      <trkpt lat="45.75656" lon="5.89147">
        <ele>779</ele>
      </trkpt>
      <trkpt lat="45.75693" lon="5.89081">
        <ele>787</ele>
      </trkpt>
      <trkpt lat="45.75733" lon="5.89024">
        <ele>799</ele>
      </trkpt>
      <trkpt lat="45.75781" lon="5.8899">
        <ele>805</ele>
      </trkpt>
      <trkpt lat="45.75834" lon="5.88953">
        <ele>802</ele>
      </trkpt>
      <trkpt lat="45.75883" lon="5.88932">
        <ele>800</ele>
      </trkpt>
      <trkpt lat="45.7594" lon="5.88905">
        <ele>804</ele>
      </trkpt>
      <trkpt lat="45.75978" lon="5.88861">
        <ele>808</ele>
      </trkpt>
      <trkpt lat="45.76037" lon="5.88843">
        <ele>811</ele>
      </trkpt>
      <trkpt lat="45.76111" lon="5.88841">
        <ele>811</ele>
      </trkpt>
      <trkpt lat="45.76173" lon="5.88788">
        <ele>818</ele>
      </trkpt>
      <trkpt lat="45.76238" lon="5.88726">
        <ele>823</ele>
      </trkpt>
      <trkpt lat="45.76284" lon="5.88678">
        <ele>829</ele>
      </trkpt>
      <trkpt lat="45.76328" lon="5.88617">
        <ele>824</ele>
      </trkpt>
      <trkpt lat="45.76362" lon="5.88577">
        <ele>811</ele>
      </trkpt>
      <trkpt lat="45.7644" lon="5.88547">
        <ele>817</ele>
      </trkpt>
      <trkpt lat="45.7651" lon="5.88521">
        <ele>816</ele>
      </trkpt>
      <trkpt lat="45.76569" lon="5.88509">
        <ele>802</ele>
      </trkpt>
      <trkpt lat="45.76658" lon="5.885">
        <ele>793</ele>
      </trkpt>
      <trkpt lat="45.76711" lon="5.88483">
        <ele>790</ele>
      </trkpt>
      <trkpt lat="45.76717" lon="5.88448">
        <ele>790</ele>
      </trkpt>
      <trkpt lat="45.767" lon="5.8837">
        <ele>786</ele>
      </trkpt>
      <trkpt lat="45.76719" lon="5.88309">
        <ele>781</ele>
      </trkpt>
      <trkpt lat="45.76728" lon="5.8827">
        <ele>776</ele>
      </trkpt>
      <trkpt lat="45.76696" lon="5.88255">
        <ele>770</ele>
      </trkpt>
      <trkpt lat="45.76656" lon="5.88246">
        <ele>763</ele>
      </trkpt>
      <trkpt lat="45.76675" lon="5.88139">
        <ele>734</ele>
      </trkpt>
      <trkpt lat="45.76613" lon="5.8813">
        <ele>708</ele>
      </trkpt>
      <trkpt lat="45.76578" lon="5.88124">
        <ele>695</ele>
      </trkpt>
      <trkpt lat="45.76576" lon="5.88071">
        <ele>673</ele>
      </trkpt>
      <trkpt lat="45.76576" lon="5.8802">
        <ele>666</ele>
      </trkpt>
      <trkpt lat="45.76654" lon="5.87994">
        <ele>664</ele>
      </trkpt>
      <trkpt lat="45.76691" lon="5.8794">
        <ele>652</ele>
      </trkpt>
      <trkpt lat="45.76721" lon="5.87908">
        <ele>646</ele>
      </trkpt>
      <trkpt lat="45.76737" lon="5.87878">
        <ele>637</ele>
      </trkpt>
      <trkpt lat="45.76814" lon="5.87839">
        <ele>625</ele>
      </trkpt>
      <trkpt lat="45.7686" lon="5.87827">
        <ele>627</ele>
      </trkpt>
      <trkpt lat="45.76932" lon="5.87763">
        <ele>613</ele>
      </trkpt>
      <trkpt lat="45.76984" lon="5.877">
        <ele>607</ele>
      </trkpt>
      <trkpt lat="45.7702" lon="5.87615">
        <ele>597</ele>
      </trkpt>
      <trkpt lat="45.77056" lon="5.87571">
        <ele>602</ele>
      </trkpt>
      <trkpt lat="45.77123" lon="5.8752">
        <ele>615</ele>
      </trkpt>
      <trkpt lat="45.77187" lon="5.87459">
        <ele>633</ele>
      </trkpt>
      <trkpt lat="45.77226" lon="5.87416">
        <ele>624</ele>
      </trkpt>
      <trkpt lat="45.77255" lon="5.87395">
        <ele>633</ele>
      </trkpt>
      <trkpt lat="45.77286" lon="5.8736">
        <ele>634</ele>
      </trkpt>
      <trkpt lat="45.77326" lon="5.87323">
        <ele>644</ele>
      </trkpt>
      <trkpt lat="45.77364" lon="5.87288">
        <ele>632</ele>
      </trkpt>
      <trkpt lat="45.77402" lon="5.8725">
        <ele>627</ele>
      </trkpt>
      <trkpt lat="45.7746" lon="5.87232">
        <ele>622</ele>
      </trkpt>
      <trkpt lat="45.77502" lon="5.87231">
        <ele>626</ele>
      </trkpt>
      <trkpt lat="45.77601" lon="5.87263">
        <ele>646</ele>
      </trkpt>
      <trkpt lat="45.77655" lon="5.87263">
        <ele>649</ele>
      </trkpt>
      <trkpt lat="45.77704" lon="5.87275">
        <ele>634</ele>
      </trkpt>
      <trkpt lat="45.77706" lon="5.87354">
        <ele>650</ele>
      </trkpt>
      <trkpt lat="45.77704" lon="5.87418">
        <ele>656</ele>
      </trkpt>
      <trkpt lat="45.77719" lon="5.87514">
        <ele>644</ele>
      </trkpt>
      <trkpt lat="45.7774" lon="5.87554">
        <ele>644</ele>
      </trkpt>
      <trkpt lat="45.77758" lon="5.87562">
        <ele>635</ele>
      </trkpt>
      <trkpt lat="45.7793" lon="5.87457">
        <ele>628</ele>
      </trkpt>
      <trkpt lat="45.77941" lon="5.87441">
        <ele>630</ele>
      </trkpt>
      <trkpt lat="45.77971" lon="5.87435">
        <ele>630</ele>
      </trkpt>
      <trkpt lat="45.77988" lon="5.87442">
        <ele>631</ele>
      </trkpt>
      <trkpt lat="45.78006" lon="5.87457">
        <ele>640</ele>
      </trkpt>
      <trkpt lat="45.78017" lon="5.87477">
        <ele>639</ele>
      </trkpt>
      <trkpt lat="45.78019" lon="5.87498">
        <ele>637</ele>
      </trkpt>
      <trkpt lat="45.78015" lon="5.8752">
        <ele>636</ele>
      </trkpt>
      <trkpt lat="45.78008" lon="5.87539">
        <ele>637</ele>
      </trkpt>
      <trkpt lat="45.78028" lon="5.87536">
        <ele>638</ele>
      </trkpt>
      <trkpt lat="45.78044" lon="5.87525">
        <ele>641</ele>
      </trkpt>
      <trkpt lat="45.78059" lon="5.87524">
        <ele>643</ele>
      </trkpt>
      <trkpt lat="45.78093" lon="5.87526">
        <ele>651</ele>
      </trkpt>
      <trkpt lat="45.78107" lon="5.87531">
        <ele>650</ele>
      </trkpt>
      <trkpt lat="45.78129" lon="5.87534">
        <ele>650</ele>
      </trkpt>
      <trkpt lat="45.78175" lon="5.87554">
        <ele>650</ele>
      </trkpt>
      <trkpt lat="45.78191" lon="5.87555">
        <ele>650</ele>
      </trkpt>
      <trkpt lat="45.78251" lon="5.87533">
        <ele>655</ele>
      </trkpt>
      <trkpt lat="45.78316" lon="5.87536">
        <ele>656</ele>
      </trkpt>
      <trkpt lat="45.78357" lon="5.87532">
        <ele>659</ele>
      </trkpt>
      <trkpt lat="45.78391" lon="5.8754">
        <ele>660</ele>
      </trkpt>
      <trkpt lat="45.78421" lon="5.87555">
        <ele>664</ele>
      </trkpt>
      <trkpt lat="45.78449" lon="5.8757">
        <ele>665</ele>
      </trkpt>
      <trkpt lat="45.78463" lon="5.87581">
        <ele>667</ele>
      </trkpt>
      <trkpt lat="45.78492" lon="5.87596">
        <ele>665</ele>
      </trkpt>
      <trkpt lat="45.78504" lon="5.87609">
        <ele>671</ele>
      </trkpt>
      <trkpt lat="45.7854" lon="5.87627">
        <ele>673</ele>
      </trkpt>
      <trkpt lat="45.78564" lon="5.87646">
        <ele>674</ele>
      </trkpt>
      <trkpt lat="45.78575" lon="5.8765">
        <ele>675</ele>
      </trkpt>
      <trkpt lat="45.78596" lon="5.87657">
        <ele>680</ele>
      </trkpt>
      <trkpt lat="45.78618" lon="5.87657">
        <ele>682</ele>
      </trkpt>
      <trkpt lat="45.78634" lon="5.8765">
        <ele>684</ele>
      </trkpt>
      <trkpt lat="45.7865" lon="5.87652">
        <ele>684</ele>
      </trkpt>
      <trkpt lat="45.78674" lon="5.8766">
        <ele>688</ele>
      </trkpt>
      <trkpt lat="45.78695" lon="5.87677">
        <ele>686</ele>
      </trkpt>
      <trkpt lat="45.78736" lon="5.87707">
        <ele>688</ele>
      </trkpt>
      <trkpt lat="45.78776" lon="5.87708">
        <ele>697</ele>
      </trkpt>
      <trkpt lat="45.78828" lon="5.87734">
        <ele>698</ele>
      </trkpt>
      <trkpt lat="45.78841" lon="5.87741">
        <ele>702</ele>
      </trkpt>
      <trkpt lat="45.78882" lon="5.87756">
        <ele>698</ele>
      </trkpt>
      <trkpt lat="45.78933" lon="5.87774">
        <ele>703</ele>
      </trkpt>
      <trkpt lat="45.78989" lon="5.87775">
        <ele>703</ele>
      </trkpt>
      <trkpt lat="45.79006" lon="5.87792">
        <ele>704</ele>
      </trkpt>
      <trkpt lat="45.79031" lon="5.8784">
        <ele>694</ele>
      </trkpt>
      <trkpt lat="45.79046" lon="5.87856">
        <ele>694</ele>
      </trkpt>
      <trkpt lat="45.79112" lon="5.87871">
        <ele>698</ele>
      </trkpt>
      <trkpt lat="45.79188" lon="5.87912">
        <ele>702</ele>
      </trkpt>
      <trkpt lat="45.79231" lon="5.87922">
        <ele>697</ele>
      </trkpt>
      <trkpt lat="45.79246" lon="5.87915">
        <ele>703</ele>
      </trkpt>
      <trkpt lat="45.79268" lon="5.87892">
        <ele>710</ele>
      </trkpt>
      <trkpt lat="45.7929" lon="5.87881">
        <ele>712</ele>
      </trkpt>
      <trkpt lat="45.7935" lon="5.87871">
        <ele>716</ele>
      </trkpt>
      <trkpt lat="45.79402" lon="5.87864">
        <ele>718</ele>
      </trkpt>
      <trkpt lat="45.79424" lon="5.87863">
        <ele>724</ele>
      </trkpt>
      <trkpt lat="45.79455" lon="5.87854">
        <ele>725</ele>
      </trkpt>
      <trkpt lat="45.7947" lon="5.87846">
        <ele>727</ele>
      </trkpt>
      <trkpt lat="45.79497" lon="5.87844">
        <ele>730</ele>
      </trkpt>
      <trkpt lat="45.79511" lon="5.8785">
        <ele>733</ele>
      </trkpt>
      <trkpt lat="45.79521" lon="5.87869">
        <ele>732</ele>
      </trkpt>
      <trkpt lat="45.79531" lon="5.8789">
        <ele>731</ele>
      </trkpt>
      <trkpt lat="45.7956" lon="5.87916">
        <ele>732</ele>
      </trkpt>
      <trkpt lat="45.79573" lon="5.87923">
        <ele>730</ele>
      </trkpt>
      <trkpt lat="45.79588" lon="5.87935">
        <ele>730</ele>
      </trkpt>
      <trkpt lat="45.79674" lon="5.87939">
        <ele>728</ele>
      </trkpt>
      <trkpt lat="45.79708" lon="5.87939">
        <ele>728</ele>
      </trkpt>
      <trkpt lat="45.79772" lon="5.87924">
        <ele>734</ele>
      </trkpt>
      <trkpt lat="45.79788" lon="5.8792">
        <ele>735</ele>
      </trkpt>
      <trkpt lat="45.79813" lon="5.87937">
        <ele>736</ele>
      </trkpt>
      <trkpt lat="45.79868" lon="5.87928">
        <ele>747</ele>
      </trkpt>
      <trkpt lat="45.79892" lon="5.87917">
        <ele>751</ele>
      </trkpt>
      <trkpt lat="45.79906" lon="5.87919">
        <ele>755</ele>
      </trkpt>
      <trkpt lat="45.79925" lon="5.8792">
        <ele>761</ele>
      </trkpt>
      <trkpt lat="45.79917" lon="5.87897">
        <ele>769</ele>
      </trkpt>
      <trkpt lat="45.79889" lon="5.87875">
        <ele>762</ele>
      </trkpt>
      <trkpt lat="45.79889" lon="5.8786">
        <ele>763</ele>
      </trkpt>
      <trkpt lat="45.79943" lon="5.87868">
        <ele>777</ele>
      </trkpt>
      <trkpt lat="45.79958" lon="5.8786">
        <ele>779</ele>
      </trkpt>
      <trkpt lat="45.79952" lon="5.87841">
        <ele>779</ele>
      </trkpt>
      <trkpt lat="45.79938" lon="5.87824">
        <ele>787</ele>
      </trkpt>
      <trkpt lat="45.79935" lon="5.87811">
        <ele>788</ele>
      </trkpt>
      <trkpt lat="45.79903" lon="5.8776">
        <ele>785</ele>
      </trkpt>
      <trkpt lat="45.7988" lon="5.87704">
        <ele>794</ele>
      </trkpt>
      <trkpt lat="45.79869" lon="5.87681">
        <ele>795</ele>
      </trkpt>
      <trkpt lat="45.79841" lon="5.8765">
        <ele>801</ele>
      </trkpt>
      <trkpt lat="45.79827" lon="5.87653">
        <ele>795</ele>
      </trkpt>
      <trkpt lat="45.79826" lon="5.87651">
        <ele>795</ele>
      </trkpt>
      <trkpt lat="45.79812" lon="5.87608">
        <ele>799</ele>
      </trkpt>
      <trkpt lat="45.79842" lon="5.87535">
        <ele>811</ele>
      </trkpt>
      <trkpt lat="45.79835" lon="5.87476">
        <ele>811</ele>
      </trkpt>
      <trkpt lat="45.79842" lon="5.87459">
        <ele>811</ele>
      </trkpt>
      <trkpt lat="45.7986" lon="5.8743">
        <ele>812</ele>
      </trkpt>
      <trkpt lat="45.79871" lon="5.87409">
        <ele>808</ele>
      </trkpt>
      <trkpt lat="45.79903" lon="5.87376">
        <ele>810</ele>
      </trkpt>
      <trkpt lat="45.79909" lon="5.87357">
        <ele>810</ele>
      </trkpt>
      <trkpt lat="45.79913" lon="5.87327">
        <ele>808</ele>
      </trkpt>
      <trkpt lat="45.79922" lon="5.87307">
        <ele>816</ele>
      </trkpt>
      <trkpt lat="45.79942" lon="5.87285">
        <ele>816</ele>
      </trkpt>
      <trkpt lat="45.80058" lon="5.87132">
        <ele>813</ele>
      </trkpt>
      <trkpt lat="45.80118" lon="5.87055">
        <ele>818</ele>
      </trkpt>
      <trkpt lat="45.80129" lon="5.87003">
        <ele>816</ele>
      </trkpt>
      <trkpt lat="45.80128" lon="5.86968">
        <ele>814</ele>
      </trkpt>
      <trkpt lat="45.80115" lon="5.86952">
        <ele>814</ele>
      </trkpt>
      <trkpt lat="45.80107" lon="5.86945">
        <ele>813</ele>
      </trkpt>
      <trkpt lat="45.80098" lon="5.86929">
        <ele>813</ele>
      </trkpt>
      <trkpt lat="45.80088" lon="5.86904">
        <ele>815</ele>
      </trkpt>
      <trkpt lat="45.80079" lon="5.86885">
        <ele>809</ele>
      </trkpt>
      <trkpt lat="45.80006" lon="5.8681">
        <ele>804</ele>
      </trkpt>
      <trkpt lat="45.79982" lon="5.86803">
        <ele>784</ele>
      </trkpt>
      <trkpt lat="45.79966" lon="5.86789">
        <ele>780</ele>
      </trkpt>
      <trkpt lat="45.79951" lon="5.868">
        <ele>778</ele>
      </trkpt>
      <trkpt lat="45.79941" lon="5.86819">
        <ele>778</ele>
      </trkpt>
      <trkpt lat="45.79932" lon="5.86834">
        <ele>781</ele>
      </trkpt>
      <trkpt lat="45.79917" lon="5.86838">
        <ele>777</ele>
      </trkpt>
      <trkpt lat="45.79905" lon="5.86836">
        <ele>770</ele>
      </trkpt>
      <trkpt lat="45.79891" lon="5.86851">
        <ele>766</ele>
      </trkpt>
      <trkpt lat="45.79872" lon="5.8686">
        <ele>762</ele>
      </trkpt>
      <trkpt lat="45.7986" lon="5.86873">
        <ele>761</ele>
      </trkpt>
      <trkpt lat="45.79845" lon="5.86897">
        <ele>760</ele>
      </trkpt>
      <trkpt lat="45.79834" lon="5.86908">
        <ele>759</ele>
      </trkpt>
      <trkpt lat="45.79827" lon="5.86882">
        <ele>746</ele>
      </trkpt>
      <trkpt lat="45.79824" lon="5.86851">
        <ele>742</ele>
      </trkpt>
      <trkpt lat="45.79819" lon="5.86819">
        <ele>730</ele>
      </trkpt>
      <trkpt lat="45.79814" lon="5.86807">
        <ele>726</ele>
      </trkpt>
      <trkpt lat="45.79808" lon="5.86779">
        <ele>719</ele>
      </trkpt>
      <trkpt lat="45.79786" lon="5.86778">
        <ele>719</ele>
      </trkpt>
      <trkpt lat="45.79784" lon="5.86761">
        <ele>717</ele>
      </trkpt>
      <trkpt lat="45.79788" lon="5.86744">
        <ele>693</ele>
      </trkpt>
      <trkpt lat="45.79809" lon="5.86737">
        <ele>693</ele>
      </trkpt>
      <trkpt lat="45.79824" lon="5.86726">
        <ele>692</ele>
      </trkpt>
      <trkpt lat="45.79833" lon="5.86708">
        <ele>685</ele>
      </trkpt>
      <trkpt lat="45.79845" lon="5.86672">
        <ele>680</ele>
      </trkpt>
      <trkpt lat="45.79855" lon="5.86661">
        <ele>664</ele>
      </trkpt>
      <trkpt lat="45.79862" lon="5.86637">
        <ele>661</ele>
      </trkpt>
      <trkpt lat="45.79857" lon="5.86613">
        <ele>654</ele>
      </trkpt>
      <trkpt lat="45.79845" lon="5.86598">
        <ele>644</ele>
      </trkpt>
      <trkpt lat="45.7986" lon="5.86581">
        <ele>624</ele>
      </trkpt>
      <trkpt lat="45.79865" lon="5.86562">
        <ele>622</ele>
      </trkpt>
      <trkpt lat="45.7986" lon="5.86541">
        <ele>616</ele>
      </trkpt>
      <trkpt lat="45.79856" lon="5.86523">
        <ele>610</ele>
      </trkpt>
      <trkpt lat="45.79871" lon="5.86501">
        <ele>610</ele>
      </trkpt>
      <trkpt lat="45.79874" lon="5.86478">
        <ele>583</ele>
      </trkpt>
      <trkpt lat="45.79889" lon="5.86447">
        <ele>578</ele>
      </trkpt>
      <trkpt lat="45.79856" lon="5.86441">
        <ele>572</ele>
      </trkpt>
      <trkpt lat="45.79842" lon="5.86439">
        <ele>568</ele>
      </trkpt>
      <trkpt lat="45.79831" lon="5.86426">
        <ele>554</ele>
      </trkpt>
      <trkpt lat="45.79817" lon="5.86419">
        <ele>555</ele>
      </trkpt>
      <trkpt lat="45.79802" lon="5.86414">
        <ele>533</ele>
      </trkpt>
      <trkpt lat="45.79786" lon="5.86409">
        <ele>531</ele>
      </trkpt>
      <trkpt lat="45.79768" lon="5.86397">
        <ele>529</ele>
      </trkpt>
      <trkpt lat="45.79737" lon="5.86398">
        <ele>522</ele>
      </trkpt>
      <trkpt lat="45.79726" lon="5.864">
        <ele>520</ele>
      </trkpt>
      <trkpt lat="45.79703" lon="5.86393">
        <ele>515</ele>
      </trkpt>
      <trkpt lat="45.79669" lon="5.86379">
        <ele>510</ele>
      </trkpt>
      <trkpt lat="45.79644" lon="5.86372">
        <ele>497</ele>
      </trkpt>
      <trkpt lat="45.79597" lon="5.8635">
        <ele>484</ele>
      </trkpt>
      <trkpt lat="45.79586" lon="5.86352">
        <ele>483</ele>
      </trkpt>
      <trkpt lat="45.79549" lon="5.86355">
        <ele>481</ele>
      </trkpt>
      <trkpt lat="45.79529" lon="5.86358">
        <ele>481</ele>
      </trkpt>
      <trkpt lat="45.79498" lon="5.86345">
        <ele>472</ele>
      </trkpt>
      <trkpt lat="45.79492" lon="5.8634">
        <ele>471</ele>
      </trkpt>
      <trkpt lat="45.79481" lon="5.86325">
        <ele>455</ele>
      </trkpt>
      <trkpt lat="45.79458" lon="5.86299">
        <ele>447</ele>
      </trkpt>
      <trkpt lat="45.79448" lon="5.86291">
        <ele>445</ele>
      </trkpt>
      <trkpt lat="45.79436" lon="5.86272">
        <ele>439</ele>
      </trkpt>
      <trkpt lat="45.79452" lon="5.86259">
        <ele>438</ele>
      </trkpt>
      <trkpt lat="45.7946" lon="5.86249">
        <ele>405</ele>
      </trkpt>
      <trkpt lat="45.79478" lon="5.86252">
        <ele>435</ele>
      </trkpt>
      <trkpt lat="45.79542" lon="5.86263">
        <ele>433</ele>
      </trkpt>
      <trkpt lat="45.79647" lon="5.86278">
        <ele>432</ele>
      </trkpt>
      <trkpt lat="45.79653" lon="5.86276">
        <ele>429</ele>
      </trkpt>
      <trkpt lat="45.79605" lon="5.86223">
        <ele>387</ele>
      </trkpt>
      <trkpt lat="45.79614" lon="5.8622">
        <ele>385</ele>
      </trkpt>
      <trkpt lat="45.79653" lon="5.86217">
        <ele>383</ele>
      </trkpt>
      <trkpt lat="45.79668" lon="5.86212">
        <ele>378</ele>
      </trkpt>
      <trkpt lat="45.79686" lon="5.86207">
        <ele>376</ele>
      </trkpt>
      <trkpt lat="45.79702" lon="5.86185">
        <ele>370</ele>
      </trkpt>
      <trkpt lat="45.79721" lon="5.86176">
        <ele>367</ele>
      </trkpt>
      <trkpt lat="45.79738" lon="5.86175">
        <ele>362</ele>
      </trkpt>
      <trkpt lat="45.79757" lon="5.86169">
        <ele>358</ele>
      </trkpt>
      <trkpt lat="45.79771" lon="5.86167">
        <ele>365</ele>
      </trkpt>
      <trkpt lat="45.79804" lon="5.86149">
        <ele>344</ele>
      </trkpt>
      <trkpt lat="45.79921" lon="5.86036">
        <ele>324</ele>
      </trkpt>
      <trkpt lat="45.79964" lon="5.86013">
        <ele>324</ele>
      </trkpt>
      <trkpt lat="45.80044" lon="5.85874">
        <ele>286</ele>
      </trkpt>
      <trkpt lat="45.80061" lon="5.85868">
        <ele>286</ele>
      </trkpt>
      <trkpt lat="45.80077" lon="5.85859">
        <ele>284</ele>
      </trkpt>
      <trkpt lat="45.80134" lon="5.85836">
        <ele>290</ele>
      </trkpt>
      <trkpt lat="45.80163" lon="5.85801">
        <ele>273</ele>
      </trkpt>
      <trkpt lat="45.80217" lon="5.85766">
        <ele>273</ele>
      </trkpt>
      <trkpt lat="45.80217" lon="5.85747">
        <ele>260</ele>
      </trkpt>
      <trkpt lat="45.80198" lon="5.8574">
        <ele>259</ele>
      </trkpt>
      <trkpt lat="45.80138" lon="5.85744">
        <ele>256</ele>
      </trkpt>
      <trkpt lat="45.80118" lon="5.85738">
        <ele>255</ele>
      </trkpt>
      <trkpt lat="45.80116" lon="5.85724">
        <ele>254</ele>
      </trkpt>
      <trkpt lat="45.80238" lon="5.85672">
        <ele>253</ele>
      </trkpt>
      <trkpt lat="45.80364" lon="5.85533">
        <ele>246</ele>
      </trkpt>
      <trkpt lat="45.80581" lon="5.85411">
        <ele>242</ele>
      </trkpt>
      <trkpt lat="45.80628" lon="5.85368">
        <ele>244</ele>
      </trkpt>
      <trkpt lat="45.80813" lon="5.85311">
        <ele>244</ele>
      </trkpt>
      <trkpt lat="45.80963" lon="5.85177">
        <ele>250</ele>
      </trkpt>
      <trkpt lat="45.81047" lon="5.85098">
        <ele>248</ele>
      </trkpt>
      <trkpt lat="45.81064" lon="5.85092">
        <ele>247</ele>
      </trkpt>
      <trkpt lat="45.81076" lon="5.85078">
        <ele>246</ele>
      </trkpt>
      <trkpt lat="45.81072" lon="5.85053">
        <ele>245</ele>
      </trkpt>
      <trkpt lat="45.81032" lon="5.85047">
        <ele>245</ele>
      </trkpt>
      <trkpt lat="45.80824" lon="5.84887">
        <ele>236</ele>
      </trkpt>
      <trkpt lat="45.80675" lon="5.84708">
        <ele>235</ele>
      </trkpt>
      <trkpt lat="45.80635" lon="5.84702">
        <ele>235</ele>
      </trkpt>
      <trkpt lat="45.8062" lon="5.8468">
        <ele>235</ele>
      </trkpt>
      <trkpt lat="45.80612" lon="5.84657">
        <ele>236</ele>
      </trkpt>
      <trkpt lat="45.80553" lon="5.84571">
        <ele>241</ele>
      </trkpt>
      <trkpt lat="45.80538" lon="5.84554">
        <ele>242</ele>
      </trkpt>
      <trkpt lat="45.80428" lon="5.84504">
        <ele>241</ele>
      </trkpt>
      <trkpt lat="45.80406" lon="5.84483">
        <ele>239</ele>
      </trkpt>
      <trkpt lat="45.80243" lon="5.84431">
        <ele>240</ele>
      </trkpt>
      <trkpt lat="45.80106" lon="5.84424">
        <ele>246</ele>
      </trkpt>
      <trkpt lat="45.80088" lon="5.84422">
        <ele>246</ele>
      </trkpt>
      <trkpt lat="45.80073" lon="5.84406">
        <ele>247</ele>
      </trkpt>
      <trkpt lat="45.80073" lon="5.84378">
        <ele>249</ele>
      </trkpt>
      <trkpt lat="45.80077" lon="5.84359">
        <ele>251</ele>
      </trkpt>
      <trkpt lat="45.80082" lon="5.84318">
        <ele>259</ele>
      </trkpt>
      <trkpt lat="45.80091" lon="5.84302">
        <ele>255</ele>
      </trkpt>
      <trkpt lat="45.80106" lon="5.84294">
        <ele>255</ele>
      </trkpt>
      <trkpt lat="45.80118" lon="5.84283">
        <ele>255</ele>
      </trkpt>
      <trkpt lat="45.80117" lon="5.84254">
        <ele>256</ele>
      </trkpt>
      <trkpt lat="45.80137" lon="5.84172">
        <ele>257</ele>
      </trkpt>
      <trkpt lat="45.80218" lon="5.84035">
        <ele>245</ele>
      </trkpt>
      <trkpt lat="45.80246" lon="5.84027">
        <ele>244</ele>
      </trkpt>
      <trkpt lat="45.80342" lon="5.83878">
        <ele>243</ele>
      </trkpt>
      <trkpt lat="45.80349" lon="5.83823">
        <ele>246</ele>
      </trkpt>
      <trkpt lat="45.80348" lon="5.83784">
        <ele>246</ele>
      </trkpt>
      <trkpt lat="45.80352" lon="5.83766">
        <ele>246</ele>
      </trkpt>
      <trkpt lat="45.80378" lon="5.83747">
        <ele>247</ele>
      </trkpt>
      <trkpt lat="45.80416" lon="5.83736">
        <ele>248</ele>
      </trkpt>
      <trkpt lat="45.80442" lon="5.83698">
        <ele>250</ele>
      </trkpt>
      <trkpt lat="45.80485" lon="5.83612">
        <ele>258</ele>
      </trkpt>
      <trkpt lat="45.80523" lon="5.8355">
        <ele>262</ele>
      </trkpt>
      <trkpt lat="45.80525" lon="5.83541">
        <ele>262</ele>
      </trkpt>
      <trkpt lat="45.80523" lon="5.83508">
        <ele>263</ele>
      </trkpt>
      <trkpt lat="45.8057" lon="5.83421">
        <ele>255</ele>
      </trkpt>
      <trkpt lat="45.80575" lon="5.83393">
        <ele>254</ele>
      </trkpt>
      <trkpt lat="45.80557" lon="5.83275">
        <ele>254</ele>
      </trkpt>
      <trkpt lat="45.80561" lon="5.83248">
        <ele>256</ele>
      </trkpt>
      <trkpt lat="45.80566" lon="5.83233">
        <ele>257</ele>
      </trkpt>
      <trkpt lat="45.80606" lon="5.83196">
        <ele>265</ele>
      </trkpt>
      <trkpt lat="45.80623" lon="5.83188">
        <ele>266</ele>
      </trkpt>
      <trkpt lat="45.80635" lon="5.83167">
        <ele>267</ele>
      </trkpt>
      <trkpt lat="45.80637" lon="5.83137">
        <ele>267</ele>
      </trkpt>
      <trkpt lat="45.8064" lon="5.83123">
        <ele>266</ele>
      </trkpt>
      <trkpt lat="45.80726" lon="5.82977">
        <ele>262</ele>
      </trkpt>
      <trkpt lat="45.80784" lon="5.82937">
        <ele>258</ele>
      </trkpt>
      <trkpt lat="45.8084" lon="5.82921">
        <ele>248</ele>
      </trkpt>
      <trkpt lat="45.80866" lon="5.82909">
        <ele>240</ele>
      </trkpt>
      <trkpt lat="45.80865" lon="5.82921">
        <ele>247</ele>
      </trkpt>
      <trkpt lat="45.80862" lon="5.82913">
        <ele>241</ele>
      </trkpt>
      <trkpt lat="45.80849" lon="5.82735">
        <ele>232</ele>
      </trkpt>
      <trkpt lat="45.80772" lon="5.82536">
        <ele>233</ele>
      </trkpt>
      <trkpt lat="45.80675" lon="5.82337">
        <ele>235</ele>
      </trkpt>
      <trkpt lat="45.80633" lon="5.82096">
        <ele>233</ele>
      </trkpt>
      <trkpt lat="45.80623" lon="5.81949">
        <ele>234</ele>
      </trkpt>
      <trkpt lat="45.8057" lon="5.81862">
        <ele>234</ele>
      </trkpt>
      <trkpt lat="45.8056" lon="5.81854">
        <ele>234</ele>
      </trkpt>
      <trkpt lat="45.80548" lon="5.81837">
        <ele>235</ele>
      </trkpt>
      <trkpt lat="45.80514" lon="5.8179">
        <ele>240</ele>
      </trkpt>
      <trkpt lat="45.80509" lon="5.81767">
        <ele>242</ele>
      </trkpt>
      <trkpt lat="45.80517" lon="5.81747">
        <ele>250</ele>
      </trkpt>
      <trkpt lat="45.80549" lon="5.81722">
        <ele>252</ele>
      </trkpt>
      <trkpt lat="45.80571" lon="5.81711">
        <ele>252</ele>
      </trkpt>
      <trkpt lat="45.80585" lon="5.81701">
        <ele>247</ele>
      </trkpt>
      <trkpt lat="45.80613" lon="5.81683">
        <ele>247</ele>
      </trkpt>
      <trkpt lat="45.80662" lon="5.81618">
        <ele>258</ele>
      </trkpt>
      <trkpt lat="45.80706" lon="5.81585">
        <ele>256</ele>
      </trkpt>
      <trkpt lat="45.80758" lon="5.81578">
        <ele>263</ele>
      </trkpt>
      <trkpt lat="45.80772" lon="5.81565">
        <ele>264</ele>
      </trkpt>
      <trkpt lat="45.80786" lon="5.81543">
        <ele>265</ele>
      </trkpt>
      <trkpt lat="45.80811" lon="5.81518">
        <ele>268</ele>
      </trkpt>
      <trkpt lat="45.80821" lon="5.81499">
        <ele>278</ele>
      </trkpt>
      <trkpt lat="45.80865" lon="5.81448">
        <ele>279</ele>
      </trkpt>
      <trkpt lat="45.80905" lon="5.81391">
        <ele>294</ele>
      </trkpt>
      <trkpt lat="45.80915" lon="5.81381">
        <ele>296</ele>
      </trkpt>
      <trkpt lat="45.8091" lon="5.8137">
        <ele>298</ele>
      </trkpt>
      <trkpt lat="45.80888" lon="5.81369">
        <ele>298</ele>
      </trkpt>
      <trkpt lat="45.80875" lon="5.81368">
        <ele>298</ele>
      </trkpt>
      <trkpt lat="45.80857" lon="5.81351">
        <ele>301</ele>
      </trkpt>
      <trkpt lat="45.80849" lon="5.81305">
        <ele>318</ele>
      </trkpt>
      <trkpt lat="45.80838" lon="5.81295">
        <ele>319</ele>
      </trkpt>
      <trkpt lat="45.80783" lon="5.8133">
        <ele>326</ele>
      </trkpt>
      <trkpt lat="45.80762" lon="5.81328">
        <ele>325</ele>
      </trkpt>
      <trkpt lat="45.80746" lon="5.81329">
        <ele>326</ele>
      </trkpt>
      <trkpt lat="45.80688" lon="5.81344">
        <ele>320</ele>
      </trkpt>
      <trkpt lat="45.80663" lon="5.81352">
        <ele>330</ele>
      </trkpt>
      <trkpt lat="45.8061" lon="5.81365">
        <ele>330</ele>
      </trkpt>
      <trkpt lat="45.80595" lon="5.81364">
        <ele>332</ele>
      </trkpt>
      <trkpt lat="45.8053" lon="5.81377">
        <ele>343</ele>
      </trkpt>
      <trkpt lat="45.80448" lon="5.81399">
        <ele>353</ele>
      </trkpt>
      <trkpt lat="45.80413" lon="5.81413">
        <ele>349</ele>
      </trkpt>
      <trkpt lat="45.80363" lon="5.81436">
        <ele>337</ele>
      </trkpt>
      <trkpt lat="45.80341" lon="5.81437">
        <ele>341</ele>
      </trkpt>
      <trkpt lat="45.80328" lon="5.81441">
        <ele>345</ele>
      </trkpt>
      <trkpt lat="45.80276" lon="5.81437">
        <ele>348</ele>
      </trkpt>
      <trkpt lat="45.80233" lon="5.81403">
        <ele>372</ele>
      </trkpt>
      <trkpt lat="45.80221" lon="5.81388">
        <ele>376</ele>
      </trkpt>
      <trkpt lat="45.80198" lon="5.81406">
        <ele>376</ele>
      </trkpt>
      <trkpt lat="45.80152" lon="5.81437">
        <ele>367</ele>
      </trkpt>
      <trkpt lat="45.80138" lon="5.81444">
        <ele>365</ele>
      </trkpt>
      <trkpt lat="45.80093" lon="5.81431">
        <ele>375</ele>
      </trkpt>
      <trkpt lat="45.80074" lon="5.81431">
        <ele>381</ele>
      </trkpt>
      <trkpt lat="45.80068" lon="5.81421">
        <ele>383</ele>
      </trkpt>
      <trkpt lat="45.80124" lon="5.814">
        <ele>389</ele>
      </trkpt>
      <trkpt lat="45.80136" lon="5.8138">
        <ele>390</ele>
      </trkpt>
      <trkpt lat="45.80152" lon="5.81312">
        <ele>399</ele>
      </trkpt>
      <trkpt lat="45.80169" lon="5.81222">
        <ele>402</ele>
      </trkpt>
      <trkpt lat="45.80173" lon="5.8121">
        <ele>402</ele>
      </trkpt>
      <trkpt lat="45.80179" lon="5.8117">
        <ele>403</ele>
      </trkpt>
      <trkpt lat="45.8017" lon="5.81151">
        <ele>405</ele>
      </trkpt>
      <trkpt lat="45.80129" lon="5.81116">
        <ele>405</ele>
      </trkpt>
      <trkpt lat="45.80013" lon="5.81113">
        <ele>403</ele>
      </trkpt>
      <trkpt lat="45.79941" lon="5.8111">
        <ele>402</ele>
      </trkpt>
      <trkpt lat="45.79927" lon="5.81096">
        <ele>402</ele>
      </trkpt>
      <trkpt lat="45.79923" lon="5.81068">
        <ele>405</ele>
      </trkpt>
      <trkpt lat="45.79918" lon="5.81053">
        <ele>407</ele>
      </trkpt>
      <trkpt lat="45.79902" lon="5.8104">
        <ele>407</ele>
      </trkpt>
      <trkpt lat="45.79894" lon="5.8102">
        <ele>409</ele>
      </trkpt>
      <trkpt lat="45.79886" lon="5.81003">
        <ele>409</ele>
      </trkpt>
      <trkpt lat="45.79865" lon="5.81003">
        <ele>409</ele>
      </trkpt>
      <trkpt lat="45.79848" lon="5.80995">
        <ele>414</ele>
      </trkpt>
      <trkpt lat="45.79837" lon="5.80977">
        <ele>416</ele>
      </trkpt>
      <trkpt lat="45.79837" lon="5.80949">
        <ele>418</ele>
      </trkpt>
      <trkpt lat="45.79846" lon="5.80886">
        <ele>418</ele>
      </trkpt>
      <trkpt lat="45.79844" lon="5.8086">
        <ele>415</ele>
      </trkpt>
      <trkpt lat="45.79828" lon="5.80857">
        <ele>413</ele>
      </trkpt>
      <trkpt lat="45.79791" lon="5.80868">
        <ele>414</ele>
      </trkpt>
      <trkpt lat="45.79751" lon="5.80859">
        <ele>413</ele>
      </trkpt>
      <trkpt lat="45.79585" lon="5.80777">
        <ele>408</ele>
      </trkpt>
      <trkpt lat="45.79536" lon="5.80772">
        <ele>412</ele>
      </trkpt>
      <trkpt lat="45.79479" lon="5.80748">
        <ele>409</ele>
      </trkpt>
      <trkpt lat="45.79468" lon="5.80724">
        <ele>409</ele>
      </trkpt>
      <trkpt lat="45.79464" lon="5.80703">
        <ele>408</ele>
      </trkpt>
      <trkpt lat="45.79447" lon="5.80675">
        <ele>408</ele>
      </trkpt>
      <trkpt lat="45.79431" lon="5.80651">
        <ele>406</ele>
      </trkpt>
      <trkpt lat="45.7941" lon="5.80632">
        <ele>414</ele>
      </trkpt>
      <trkpt lat="45.794" lon="5.80625">
        <ele>414</ele>
      </trkpt>
      <trkpt lat="45.79394" lon="5.80609">
        <ele>415</ele>
      </trkpt>
      <trkpt lat="45.79375" lon="5.80596">
        <ele>417</ele>
      </trkpt>
      <trkpt lat="45.79357" lon="5.80592">
        <ele>419</ele>
      </trkpt>
      <trkpt lat="45.79327" lon="5.80578">
        <ele>427</ele>
      </trkpt>
      <trkpt lat="45.79299" lon="5.80556">
        <ele>432</ele>
      </trkpt>
      <trkpt lat="45.79226" lon="5.80521">
        <ele>441</ele>
      </trkpt>
      <trkpt lat="45.79199" lon="5.80502">
        <ele>443</ele>
      </trkpt>
      <trkpt lat="45.79178" lon="5.80491">
        <ele>449</ele>
      </trkpt>
      <trkpt lat="45.79161" lon="5.80473">
        <ele>454</ele>
      </trkpt>
      <trkpt lat="45.79155" lon="5.80457">
        <ele>455</ele>
      </trkpt>
      <trkpt lat="45.79142" lon="5.80409">
        <ele>462</ele>
      </trkpt>
      <trkpt lat="45.79074" lon="5.80346">
        <ele>471</ele>
      </trkpt>
      <trkpt lat="45.79066" lon="5.80348">
        <ele>471</ele>
      </trkpt>
      <trkpt lat="45.79027" lon="5.80347">
        <ele>474</ele>
      </trkpt>
      <trkpt lat="45.79" lon="5.80339">
        <ele>479</ele>
      </trkpt>
      <trkpt lat="45.78986" lon="5.80331">
        <ele>481</ele>
      </trkpt>
      <trkpt lat="45.7897" lon="5.8032">
        <ele>483</ele>
      </trkpt>
      <trkpt lat="45.78943" lon="5.80306">
        <ele>484</ele>
      </trkpt>
      <trkpt lat="45.78889" lon="5.80263">
        <ele>488</ele>
      </trkpt>
      <trkpt lat="45.78868" lon="5.80255">
        <ele>489</ele>
      </trkpt>
      <trkpt lat="45.78838" lon="5.80261">
        <ele>490</ele>
      </trkpt>
      <trkpt lat="45.78824" lon="5.80268">
        <ele>494</ele>
      </trkpt>
      <trkpt lat="45.7881" lon="5.80283">
        <ele>495</ele>
      </trkpt>
      <trkpt lat="45.78805" lon="5.80305">
        <ele>494</ele>
      </trkpt>
      <trkpt lat="45.78794" lon="5.80322">
        <ele>495</ele>
      </trkpt>
      <trkpt lat="45.78766" lon="5.80322">
        <ele>497</ele>
      </trkpt>
      <trkpt lat="45.78723" lon="5.8033">
        <ele>503</ele>
      </trkpt>
      <trkpt lat="45.78736" lon="5.803">
        <ele>486</ele>
      </trkpt>
      <trkpt lat="45.78771" lon="5.80219">
        <ele>488</ele>
      </trkpt>
      <trkpt lat="45.78802" lon="5.80172">
        <ele>487</ele>
      </trkpt>
      <trkpt lat="45.78887" lon="5.80103">
        <ele>493</ele>
      </trkpt>
      <trkpt lat="45.78851" lon="5.80076">
        <ele>499</ele>
      </trkpt>
      <trkpt lat="45.78786" lon="5.8009">
        <ele>503</ele>
      </trkpt>
      <trkpt lat="45.78807" lon="5.80033">
        <ele>509</ele>
      </trkpt>
      <trkpt lat="45.78836" lon="5.79995">
        <ele>514</ele>
      </trkpt>
      <trkpt lat="45.78817" lon="5.79906">
        <ele>527</ele>
      </trkpt>
      <trkpt lat="45.788" lon="5.79835">
        <ele>534</ele>
      </trkpt>
      <trkpt lat="45.78771" lon="5.79755">
        <ele>542</ele>
      </trkpt>
      <trkpt lat="45.7874" lon="5.79771">
        <ele>544</ele>
      </trkpt>
      <trkpt lat="45.78714" lon="5.79703">
        <ele>551</ele>
      </trkpt>
      <trkpt lat="45.78679" lon="5.79654">
        <ele>551</ele>
      </trkpt>
      <trkpt lat="45.78631" lon="5.79651">
        <ele>560</ele>
      </trkpt>
      <trkpt lat="45.78587" lon="5.79682">
        <ele>567</ele>
      </trkpt>
      <trkpt lat="45.78548" lon="5.7968">
        <ele>566</ele>
      </trkpt>
      <trkpt lat="45.78495" lon="5.79658">
        <ele>558</ele>
      </trkpt>
      <trkpt lat="45.78452" lon="5.79645">
        <ele>555</ele>
      </trkpt>
      <trkpt lat="45.78383" lon="5.79632">
        <ele>543</ele>
      </trkpt>
      <trkpt lat="45.78328" lon="5.79672">
        <ele>547</ele>
      </trkpt>
      <trkpt lat="45.78295" lon="5.79728">
        <ele>550</ele>
      </trkpt>
      <trkpt lat="45.78252" lon="5.79698">
        <ele>547</ele>
      </trkpt>
      <trkpt lat="45.78225" lon="5.79662">
        <ele>543</ele>
      </trkpt>
      <trkpt lat="45.78193" lon="5.79655">
        <ele>539</ele>
      </trkpt>
      <trkpt lat="45.78163" lon="5.79717">
        <ele>541</ele>
      </trkpt>
      <trkpt lat="45.78132" lon="5.79762">
        <ele>541</ele>
      </trkpt>
      <trkpt lat="45.78086" lon="5.79759">
        <ele>534</ele>
      </trkpt>
      <trkpt lat="45.78047" lon="5.79741">
        <ele>534</ele>
      </trkpt>
      <trkpt lat="45.78019" lon="5.79693">
        <ele>531</ele>
      </trkpt>
      <trkpt lat="45.77985" lon="5.79638">
        <ele>533</ele>
      </trkpt>
      <trkpt lat="45.77938" lon="5.79639">
        <ele>531</ele>
      </trkpt>
      <trkpt lat="45.77887" lon="5.79635">
        <ele>529</ele>
      </trkpt>
      <trkpt lat="45.77841" lon="5.79635">
        <ele>529</ele>
      </trkpt>
      <trkpt lat="45.77839" lon="5.79703">
        <ele>530</ele>
      </trkpt>
      <trkpt lat="45.77795" lon="5.79712">
        <ele>531</ele>
      </trkpt>
      <trkpt lat="45.77766" lon="5.79751">
        <ele>535</ele>
      </trkpt>
      <trkpt lat="45.77752" lon="5.797">
        <ele>530</ele>
      </trkpt>
      <trkpt lat="45.77694" lon="5.79681">
        <ele>529</ele>
      </trkpt>
      <trkpt lat="45.77661" lon="5.79688">
        <ele>529</ele>
      </trkpt>
      <trkpt lat="45.77607" lon="5.79685">
        <ele>527</ele>
      </trkpt>
      <trkpt lat="45.77553" lon="5.79672">
        <ele>527</ele>
      </trkpt>
      <trkpt lat="45.77507" lon="5.79623">
        <ele>529</ele>
      </trkpt>
      <trkpt lat="45.77464" lon="5.79599">
        <ele>530</ele>
      </trkpt>
      <trkpt lat="45.77421" lon="5.79602">
        <ele>533</ele>
      </trkpt>
      <trkpt lat="45.77368" lon="5.79568">
        <ele>533</ele>
      </trkpt>
      <trkpt lat="45.77306" lon="5.79577">
        <ele>528</ele>
      </trkpt>
      <trkpt lat="45.77259" lon="5.79601">
        <ele>522</ele>
      </trkpt>
      <trkpt lat="45.77232" lon="5.79628">
        <ele>519</ele>
      </trkpt>
      <trkpt lat="45.77185" lon="5.7964">
        <ele>519</ele>
      </trkpt>
      <trkpt lat="45.77124" lon="5.79665">
        <ele>515</ele>
      </trkpt>
      <trkpt lat="45.77066" lon="5.79648">
        <ele>512</ele>
      </trkpt>
      <trkpt lat="45.76993" lon="5.79637">
        <ele>504</ele>
      </trkpt>
      <trkpt lat="45.76941" lon="5.79638">
        <ele>493</ele>
      </trkpt>
      <trkpt lat="45.7688" lon="5.79639">
        <ele>486</ele>
      </trkpt>
      <trkpt lat="45.7683" lon="5.79677">
        <ele>473</ele>
      </trkpt>
      <trkpt lat="45.76783" lon="5.79705">
        <ele>464</ele>
      </trkpt>
      <trkpt lat="45.76703" lon="5.7978">
        <ele>449</ele>
      </trkpt>
      <trkpt lat="45.76672" lon="5.79796">
        <ele>444</ele>
      </trkpt>
      <trkpt lat="45.76653" lon="5.79773">
        <ele>448</ele>
      </trkpt>
      <trkpt lat="45.76585" lon="5.79743">
        <ele>449</ele>
      </trkpt>
      <trkpt lat="45.7657" lon="5.79642">
        <ele>461</ele>
      </trkpt>
      <trkpt lat="45.7656" lon="5.79593">
        <ele>462</ele>
      </trkpt>
      <trkpt lat="45.7661" lon="5.79506">
        <ele>480</ele>
      </trkpt>
      <trkpt lat="45.76614" lon="5.79452">
        <ele>476</ele>
      </trkpt>
      <trkpt lat="45.76649" lon="5.79393">
        <ele>465</ele>
      </trkpt>
      <trkpt lat="45.76726" lon="5.79378">
        <ele>475</ele>
      </trkpt>
      <trkpt lat="45.76815" lon="5.79268">
        <ele>460</ele>
      </trkpt>
      <trkpt lat="45.76949" lon="5.79228">
        <ele>455</ele>
      </trkpt>
      <trkpt lat="45.77077" lon="5.79188">
        <ele>436</ele>
      </trkpt>
      <trkpt lat="45.7711" lon="5.79145">
        <ele>427</ele>
      </trkpt>
      <trkpt lat="45.77058" lon="5.79049">
        <ele>416</ele>
      </trkpt>
      <trkpt lat="45.76972" lon="5.79005">
        <ele>411</ele>
      </trkpt>
      <trkpt lat="45.76915" lon="5.78946">
        <ele>406</ele>
      </trkpt>
      <trkpt lat="45.76889" lon="5.79006">
        <ele>405</ele>
      </trkpt>
      <trkpt lat="45.76793" lon="5.79042">
        <ele>407</ele>
      </trkpt>
      <trkpt lat="45.7665" lon="5.79068">
        <ele>410</ele>
      </trkpt>
      <trkpt lat="45.76443" lon="5.79135">
        <ele>386</ele>
      </trkpt>
      <trkpt lat="45.76295" lon="5.79191">
        <ele>363</ele>
      </trkpt>
      <trkpt lat="45.76177" lon="5.79292">
        <ele>341</ele>
      </trkpt>
      <trkpt lat="45.76115" lon="5.79334">
        <ele>336</ele>
      </trkpt>
      <trkpt lat="45.76124" lon="5.79418">
        <ele>330</ele>
      </trkpt>
      <trkpt lat="45.7584" lon="5.79358">
        <ele>327</ele>
      </trkpt>
      <trkpt lat="45.75591" lon="5.79394">
        <ele>317</ele>
      </trkpt>
      <trkpt lat="45.75582" lon="5.79487">
        <ele>319</ele>
      </trkpt>
      <trkpt lat="45.75395" lon="5.79484">
        <ele>333</ele>
      </trkpt>
      <trkpt lat="45.75268" lon="5.79496">
        <ele>339</ele>
      </trkpt>
      <trkpt lat="45.75077" lon="5.79638">
        <ele>354</ele>
      </trkpt>
      <trkpt lat="45.75001" lon="5.79691">
        <ele>355</ele>
      </trkpt>
      <trkpt lat="45.74965" lon="5.79729">
        <ele>356</ele>
      </trkpt>
      <trkpt lat="45.74968" lon="5.79776">
        <ele>367</ele>
      </trkpt>
      <trkpt lat="45.74951" lon="5.79806">
        <ele>372</ele>
      </trkpt>
      <trkpt lat="45.7493" lon="5.79875">
        <ele>387</ele>
      </trkpt>
      <trkpt lat="45.74907" lon="5.79907">
        <ele>392</ele>
      </trkpt>
      <trkpt lat="45.74887" lon="5.79941">
        <ele>402</ele>
      </trkpt>
      <trkpt lat="45.7482" lon="5.7997">
        <ele>406</ele>
      </trkpt>
      <trkpt lat="45.74741" lon="5.79965">
        <ele>410</ele>
      </trkpt>
      <trkpt lat="45.74683" lon="5.79934">
        <ele>407</ele>
      </trkpt>
      <trkpt lat="45.74648" lon="5.79922">
        <ele>404</ele>
      </trkpt>
      <trkpt lat="45.74563" lon="5.79916">
        <ele>398</ele>
      </trkpt>
      <trkpt lat="45.74511" lon="5.79935">
        <ele>399</ele>
      </trkpt>
      <trkpt lat="45.74448" lon="5.79955">
        <ele>399</ele>
      </trkpt>
      <trkpt lat="45.7439" lon="5.79998">
        <ele>402</ele>
      </trkpt>
      <trkpt lat="45.74358" lon="5.80055">
        <ele>418</ele>
      </trkpt>
      <trkpt lat="45.74296" lon="5.80107">
        <ele>421</ele>
      </trkpt>
      <trkpt lat="45.74267" lon="5.80151">
        <ele>431</ele>
      </trkpt>
      <trkpt lat="45.74194" lon="5.80159">
        <ele>411</ele>
      </trkpt>
      <trkpt lat="45.74145" lon="5.80187">
        <ele>408</ele>
      </trkpt>
      <trkpt lat="45.74103" lon="5.80218">
        <ele>408</ele>
      </trkpt>
      <trkpt lat="45.74043" lon="5.8028">
        <ele>409</ele>
      </trkpt>
      <trkpt lat="45.73995" lon="5.80283">
        <ele>399</ele>
      </trkpt>
      <trkpt lat="45.73949" lon="5.80292">
        <ele>389</ele>
      </trkpt>
      <trkpt lat="45.73911" lon="5.80324">
        <ele>388</ele>
      </trkpt>
      <trkpt lat="45.73867" lon="5.8037">
        <ele>390</ele>
      </trkpt>
      <trkpt lat="45.73819" lon="5.80374">
        <ele>385</ele>
      </trkpt>
      <trkpt lat="45.73777" lon="5.80334">
        <ele>374</ele>
      </trkpt>
      <trkpt lat="45.73719" lon="5.80317">
        <ele>370</ele>
      </trkpt>
      <trkpt lat="45.73661" lon="5.80314">
        <ele>371</ele>
      </trkpt>
      <trkpt lat="45.73615" lon="5.80317">
        <ele>372</ele>
      </trkpt>
      <trkpt lat="45.73568" lon="5.80314">
        <ele>374</ele>
      </trkpt>
      <trkpt lat="45.7353" lon="5.80303">
        <ele>375</ele>
      </trkpt>
      <trkpt lat="45.73468" lon="5.80299">
        <ele>379</ele>
      </trkpt>
      <trkpt lat="45.73427" lon="5.80296">
        <ele>383</ele>
      </trkpt>
      <trkpt lat="45.73402" lon="5.80292">
        <ele>385</ele>
      </trkpt>
      <trkpt lat="45.73378" lon="5.8033">
        <ele>392</ele>
      </trkpt>
      <trkpt lat="45.73362" lon="5.8042">
        <ele>404</ele>
      </trkpt>
      <trkpt lat="45.73328" lon="5.80417">
        <ele>406</ele>
      </trkpt>
      <trkpt lat="45.73301" lon="5.80363">
        <ele>402</ele>
      </trkpt>
      <trkpt lat="45.73251" lon="5.80319">
        <ele>403</ele>
      </trkpt>
      <trkpt lat="45.73225" lon="5.8037">
        <ele>409</ele>
      </trkpt>
      <trkpt lat="45.73177" lon="5.80472">
        <ele>422</ele>
      </trkpt>
      <trkpt lat="45.73113" lon="5.80446">
        <ele>425</ele>
      </trkpt>
      <trkpt lat="45.73084" lon="5.80433">
        <ele>428</ele>
      </trkpt>
      <trkpt lat="45.73048" lon="5.80393">
        <ele>429</ele>
      </trkpt>
      <trkpt lat="45.73034" lon="5.80362">
        <ele>429</ele>
      </trkpt>
      <trkpt lat="45.73005" lon="5.80325">
        <ele>429</ele>
      </trkpt>
      <trkpt lat="45.72986" lon="5.8033">
        <ele>433</ele>
      </trkpt>
      <trkpt lat="45.72976" lon="5.80391">
        <ele>439</ele>
      </trkpt>
      <trkpt lat="45.72968" lon="5.80462">
        <ele>451</ele>
      </trkpt>
      <trkpt lat="45.72966" lon="5.80505">
        <ele>459</ele>
      </trkpt>
      <trkpt lat="45.72965" lon="5.80551">
        <ele>468</ele>
      </trkpt>
      <trkpt lat="45.72964" lon="5.80598">
        <ele>479</ele>
      </trkpt>
      <trkpt lat="45.7295" lon="5.80628">
        <ele>488</ele>
      </trkpt>
      <trkpt lat="45.72929" lon="5.8067">
        <ele>496</ele>
      </trkpt>
      <trkpt lat="45.72889" lon="5.80701">
        <ele>494</ele>
      </trkpt>
      <trkpt lat="45.72873" lon="5.80654">
        <ele>485</ele>
      </trkpt>
      <trkpt lat="45.72854" lon="5.80578">
        <ele>471</ele>
      </trkpt>
      <trkpt lat="45.72847" lon="5.80519">
        <ele>463</ele>
      </trkpt>
      <trkpt lat="45.72847" lon="5.80454">
        <ele>455</ele>
      </trkpt>
      <trkpt lat="45.72849" lon="5.8039">
        <ele>449</ele>
      </trkpt>
      <trkpt lat="45.72832" lon="5.80321">
        <ele>442</ele>
      </trkpt>
      <trkpt lat="45.72777" lon="5.80256">
        <ele>435</ele>
        <time>2007-05-01T08:56:08Z</time>
      </trkpt>
      <trkpt lat="45.72766" lon="5.80279">
        <ele>436</ele>
        <time>2007-05-01T08:56:18Z</time>
      </trkpt>
      <trkpt lat="45.72755" lon="5.80301">
        <ele>437</ele>
        <time>2007-05-01T08:56:24Z</time>
      </trkpt>
      <trkpt lat="45.7274" lon="5.80321">
        <ele>438</ele>
        <time>2007-05-01T08:56:30Z</time>
      </trkpt>
      <trkpt lat="45.72724" lon="5.80338">
        <ele>439</ele>
        <time>2007-05-01T08:56:36Z</time>
      </trkpt>
      <trkpt lat="45.72709" lon="5.80357">
        <ele>441</ele>
        <time>2007-05-01T08:56:42Z</time>
      </trkpt>
      <trkpt lat="45.72691" lon="5.80374">
        <ele>443</ele>
        <time>2007-05-01T08:56:48Z</time>
      </trkpt>
      <trkpt lat="45.72673" lon="5.80386">
        <ele>446</ele>
        <time>2007-05-01T08:56:54Z</time>
      </trkpt>
      <trkpt lat="45.72654" lon="5.80389">
        <ele>448</ele>
        <time>2007-05-01T08:57:01Z</time>
      </trkpt>
      <trkpt lat="45.72636" lon="5.80381">
        <ele>448</ele>
        <time>2007-05-01T08:57:10Z</time>
      </trkpt>
      <trkpt lat="45.72618" lon="5.80369">
        <ele>448</ele>
        <time>2007-05-01T08:57:20Z</time>
      </trkpt>
      <trkpt lat="45.726" lon="5.80362">
        <ele>448</ele>
        <time>2007-05-01T08:57:30Z</time>
      </trkpt>
      <trkpt lat="45.72581" lon="5.80366">
        <ele>450</ele>
        <time>2007-05-01T08:57:40Z</time>
      </trkpt>
      <trkpt lat="45.72563" lon="5.80376">
        <ele>451</ele>
        <time>2007-05-01T08:57:49Z</time>
      </trkpt>
      <trkpt lat="45.72546" lon="5.80394">
        <ele>450</ele>
        <time>2007-05-01T08:57:57Z</time>
      </trkpt>
      <trkpt lat="45.72532" lon="5.80419">
        <ele>449</ele>
        <time>2007-05-01T08:58:02Z</time>
      </trkpt>
      <trkpt lat="45.72524" lon="5.80445">
        <ele>448</ele>
        <time>2007-05-01T08:58:05Z</time>
      </trkpt>
      <trkpt lat="45.72514" lon="5.80475">
        <ele>448</ele>
        <time>2007-05-01T08:58:08Z</time>
      </trkpt>
      <trkpt lat="45.72497" lon="5.80496">
        <ele>448</ele>
        <time>2007-05-01T08:58:11Z</time>
      </trkpt>
      <trkpt lat="45.72479" lon="5.80509">
        <ele>449</ele>
        <time>2007-05-01T08:58:14Z</time>
      </trkpt>
      <trkpt lat="45.72463" lon="5.8052">
        <ele>450</ele>
        <time>2007-05-01T08:58:20Z</time>
      </trkpt>
      <trkpt lat="45.72447" lon="5.80532">
        <ele>452</ele>
        <time>2007-05-01T08:58:29Z</time>
      </trkpt>
      <trkpt lat="45.72431" lon="5.80543">
        <ele>453</ele>
        <time>2007-05-01T08:58:37Z</time>
      </trkpt>
      <trkpt lat="45.72414" lon="5.80554">
        <ele>453</ele>
        <time>2007-05-01T08:58:44Z</time>
      </trkpt>
      <trkpt lat="45.72397" lon="5.80569">
        <ele>454</ele>
        <time>2007-05-01T08:58:50Z</time>
      </trkpt>
      <trkpt lat="45.72383" lon="5.80585">
        <ele>454</ele>
        <time>2007-05-01T08:58:55Z</time>
      </trkpt>
      <trkpt lat="45.72367" lon="5.80605">
        <ele>455</ele>
        <time>2007-05-01T08:59:00Z</time>
      </trkpt>
      <trkpt lat="45.72352" lon="5.80623">
        <ele>454</ele>
        <time>2007-05-01T08:59:04Z</time>
      </trkpt>
      <trkpt lat="45.72338" lon="5.80642">
        <ele>454</ele>
        <time>2007-05-01T08:59:08Z</time>
      </trkpt>
      <trkpt lat="45.72324" lon="5.8066">
        <ele>453</ele>
        <time>2007-05-01T08:59:12Z</time>
      </trkpt>
      <trkpt lat="45.72309" lon="5.80682">
        <ele>453</ele>
        <time>2007-05-01T08:59:16Z</time>
      </trkpt>
      <trkpt lat="45.72296" lon="5.80708">
        <ele>452</ele>
        <time>2007-05-01T08:59:20Z</time>
      </trkpt>
      <trkpt lat="45.72287" lon="5.80736">
        <ele>451</ele>
        <time>2007-05-01T08:59:24Z</time>
      </trkpt>
      <trkpt lat="45.72282" lon="5.80765">
        <ele>451</ele>
        <time>2007-05-01T08:59:28Z</time>
      </trkpt>
      <trkpt lat="45.7228" lon="5.80798">
        <ele>452</ele>
        <time>2007-05-01T08:59:32Z</time>
      </trkpt>
      <trkpt lat="45.72269" lon="5.80828">
        <ele>452</ele>
        <time>2007-05-01T08:59:36Z</time>
      </trkpt>
      <trkpt lat="45.72248" lon="5.80836">
        <ele>450</ele>
        <time>2007-05-01T08:59:40Z</time>
      </trkpt>
      <trkpt lat="45.72239" lon="5.80855">
        <ele>451</ele>
        <time>2007-05-01T08:59:45Z</time>
      </trkpt>
      <trkpt lat="45.72247" lon="5.80879">
        <ele>454</ele>
        <time>2007-05-01T08:59:54Z</time>
      </trkpt>
      <trkpt lat="45.72258" lon="5.80899">
        <ele>456</ele>
        <time>2007-05-01T09:00:03Z</time>
      </trkpt>
      <trkpt lat="45.72273" lon="5.80916">
        <ele>458</ele>
        <time>2007-05-01T09:00:12Z</time>
      </trkpt>
      <trkpt lat="45.72283" lon="5.80938">
        <ele>459</ele>
        <time>2007-05-01T09:00:22Z</time>
      </trkpt>
      <trkpt lat="45.72283" lon="5.80966">
        <ele>461</ele>
        <time>2007-05-01T09:00:33Z</time>
      </trkpt>
      <trkpt lat="45.72277" lon="5.80993">
        <ele>463</ele>
        <time>2007-05-01T09:00:44Z</time>
      </trkpt>
      <trkpt lat="45.72264" lon="5.81013">
        <ele>463</ele>
        <time>2007-05-01T09:00:54Z</time>
      </trkpt>
      <trkpt lat="45.72254" lon="5.8104">
        <ele>464</ele>
        <time>2007-05-01T09:01:02Z</time>
      </trkpt>
      <trkpt lat="45.72249" lon="5.81067">
        <ele>464</ele>
        <time>2007-05-01T09:01:09Z</time>
      </trkpt>
      <trkpt lat="45.72254" lon="5.81094">
        <ele>466</ele>
        <time>2007-05-01T09:01:17Z</time>
      </trkpt>
      <trkpt lat="45.72261" lon="5.81118">
        <ele>469</ele>
        <time>2007-05-01T09:01:26Z</time>
      </trkpt>
      <trkpt lat="45.72265" lon="5.81145">
        <ele>471</ele>
        <time>2007-05-01T09:01:37Z</time>
      </trkpt>
      <trkpt lat="45.72268" lon="5.81173">
        <ele>474</ele>
        <time>2007-05-01T09:01:48Z</time>
      </trkpt>
      <trkpt lat="45.7227" lon="5.812">
        <ele>477</ele>
        <time>2007-05-01T09:01:59Z</time>
      </trkpt>
      <trkpt lat="45.72271" lon="5.81227">
        <ele>479</ele>
        <time>2007-05-01T09:02:09Z</time>
      </trkpt>
      <trkpt lat="45.72276" lon="5.81252">
        <ele>481</ele>
        <time>2007-05-01T09:02:19Z</time>
      </trkpt>
      <trkpt lat="45.72287" lon="5.81274">
        <ele>485</ele>
        <time>2007-05-01T09:02:31Z</time>
      </trkpt>
      <trkpt lat="45.72296" lon="5.81298">
        <ele>487</ele>
        <time>2007-05-01T09:02:42Z</time>
      </trkpt>
      <trkpt lat="45.72303" lon="5.81322">
        <ele>489</ele>
        <time>2007-05-01T09:02:53Z</time>
      </trkpt>
      <trkpt lat="45.72316" lon="5.8134">
        <ele>492</ele>
        <time>2007-05-01T09:03:05Z</time>
      </trkpt>
      <trkpt lat="45.72326" lon="5.81319">
        <ele>493</ele>
        <time>2007-05-01T09:03:14Z</time>
      </trkpt>
      <trkpt lat="45.72337" lon="5.81296">
        <ele>494</ele>
        <time>2007-05-01T09:03:21Z</time>
      </trkpt>
      <trkpt lat="45.72349" lon="5.81273">
        <ele>495</ele>
        <time>2007-05-01T09:03:28Z</time>
      </trkpt>
      <trkpt lat="45.7236" lon="5.81252">
        <ele>495</ele>
        <time>2007-05-01T09:03:34Z</time>
      </trkpt>
      <trkpt lat="45.72372" lon="5.8123">
        <ele>496</ele>
        <time>2007-05-01T09:03:40Z</time>
      </trkpt>
      <trkpt lat="45.72383" lon="5.81208">
        <ele>496</ele>
        <time>2007-05-01T09:03:46Z</time>
      </trkpt>
      <trkpt lat="45.72399" lon="5.81192">
        <ele>498</ele>
        <time>2007-05-01T09:03:53Z</time>
      </trkpt>
      <trkpt lat="45.72416" lon="5.81205">
        <ele>501</ele>
        <time>2007-05-01T09:04:00Z</time>
      </trkpt>
      <trkpt lat="45.72435" lon="5.81214">
        <ele>504</ele>
        <time>2007-05-01T09:04:08Z</time>
      </trkpt>
      <trkpt lat="45.72452" lon="5.81223">
        <ele>506</ele>
        <time>2007-05-01T09:04:17Z</time>
      </trkpt>
      <trkpt lat="45.72469" lon="5.81233">
        <ele>508</ele>
        <time>2007-05-01T09:04:27Z</time>
      </trkpt>
      <trkpt lat="45.72485" lon="5.81244">
        <ele>510</ele>
        <time>2007-05-01T09:04:38Z</time>
      </trkpt>
      <trkpt lat="45.725" lon="5.81259">
        <ele>513</ele>
        <time>2007-05-01T09:04:50Z</time>
      </trkpt>
      <trkpt lat="45.72514" lon="5.81279">
        <ele>516</ele>
        <time>2007-05-01T09:05:03Z</time>
      </trkpt>
      <trkpt lat="45.72524" lon="5.81301">
        <ele>519</ele>
        <time>2007-05-01T09:05:16Z</time>
      </trkpt>
      <trkpt lat="45.72528" lon="5.81327">
        <ele>523</ele>
        <time>2007-05-01T09:05:30Z</time>
      </trkpt>
      <trkpt lat="45.72533" lon="5.81355">
        <ele>527</ele>
        <time>2007-05-01T09:05:43Z</time>
      </trkpt>
      <trkpt lat="45.72534" lon="5.81381">
        <ele>530</ele>
        <time>2007-05-01T09:05:52Z</time>
      </trkpt>
      <trkpt lat="45.72537" lon="5.81409">
        <ele>534</ele>
        <time>2007-05-01T09:06:00Z</time>
      </trkpt>
      <trkpt lat="45.72547" lon="5.81432">
        <ele>540</ele>
        <time>2007-05-01T09:06:10Z</time>
      </trkpt>
      <trkpt lat="45.72548" lon="5.81459">
        <ele>543</ele>
        <time>2007-05-01T09:06:19Z</time>
      </trkpt>
      <trkpt lat="45.72543" lon="5.81485">
        <ele>543</ele>
        <time>2007-05-01T09:06:25Z</time>
      </trkpt>
      <trkpt lat="45.72536" lon="5.81512">
        <ele>542</ele>
        <time>2007-05-01T09:06:29Z</time>
      </trkpt>
      <trkpt lat="45.72525" lon="5.81533">
        <ele>539</ele>
        <time>2007-05-01T09:06:33Z</time>
      </trkpt>
      <trkpt lat="45.72496" lon="5.81569">
        <ele>532</ele>
        <time>2007-05-01T09:06:43Z</time>
      </trkpt>
      <trkpt lat="45.7247" lon="5.81607">
        <ele>528</ele>
        <time>2007-05-01T09:06:55Z</time>
      </trkpt>
      <trkpt lat="45.72461" lon="5.81633">
        <ele>529</ele>
        <time>2007-05-01T09:07:02Z</time>
      </trkpt>
      <trkpt lat="45.72454" lon="5.81658">
        <ele>530</ele>
        <time>2007-05-01T09:07:11Z</time>
      </trkpt>
      <trkpt lat="45.72449" lon="5.81684">
        <ele>533</ele>
        <time>2007-05-01T09:07:23Z</time>
      </trkpt>
      <trkpt lat="45.72443" lon="5.81712">
        <ele>536</ele>
        <time>2007-05-01T09:07:34Z</time>
      </trkpt>
      <trkpt lat="45.72436" lon="5.81737">
        <ele>537</ele>
        <time>2007-05-01T09:07:46Z</time>
      </trkpt>
      <trkpt lat="45.72429" lon="5.81763">
        <ele>540</ele>
        <time>2007-05-01T09:08:00Z</time>
      </trkpt>
      <trkpt lat="45.72421" lon="5.81788">
        <ele>542</ele>
        <time>2007-05-01T09:08:15Z</time>
      </trkpt>
      <trkpt lat="45.72414" lon="5.81817">
        <ele>545</ele>
        <time>2007-05-01T09:08:30Z</time>
      </trkpt>
      <trkpt lat="45.72406" lon="5.81845">
        <ele>548</ele>
        <time>2007-05-01T09:08:44Z</time>
      </trkpt>
      <trkpt lat="45.72396" lon="5.81873">
        <ele>550</ele>
        <time>2007-05-01T09:09:00Z</time>
      </trkpt>
      <trkpt lat="45.72389" lon="5.81904">
        <ele>556</ele>
        <time>2007-05-01T09:09:15Z</time>
      </trkpt>
      <trkpt lat="45.72378" lon="5.81933">
        <ele>559</ele>
        <time>2007-05-01T09:09:30Z</time>
      </trkpt>
      <trkpt lat="45.72369" lon="5.81961">
        <ele>563</ele>
        <time>2007-05-01T09:09:44Z</time>
      </trkpt>
      <trkpt lat="45.72357" lon="5.81982">
        <ele>566</ele>
        <time>2007-05-01T09:09:57Z</time>
      </trkpt>
      <trkpt lat="45.72346" lon="5.82006">
        <ele>567</ele>
        <time>2007-05-01T09:10:10Z</time>
      </trkpt>
      <trkpt lat="45.72343" lon="5.82035">
        <ele>572</ele>
        <time>2007-05-01T09:10:25Z</time>
      </trkpt>
      <trkpt lat="45.72345" lon="5.82064">
        <ele>577</ele>
        <time>2007-05-01T09:10:39Z</time>
      </trkpt>
      <trkpt lat="45.7234" lon="5.8209">
        <ele>578</ele>
        <time>2007-05-01T09:10:54Z</time>
      </trkpt>
      <trkpt lat="45.72334" lon="5.8212">
        <ele>579</ele>
        <time>2007-05-01T09:11:11Z</time>
      </trkpt>
      <trkpt lat="45.7232" lon="5.82185">
        <ele>582</ele>
        <time>2007-05-01T09:11:44Z</time>
      </trkpt>
      <trkpt lat="45.72305" lon="5.82211">
        <ele>580</ele>
        <time>2007-05-01T09:11:58Z</time>
      </trkpt>
      <trkpt lat="45.72291" lon="5.82238">
        <ele>578</ele>
        <time>2007-05-01T09:12:14Z</time>
      </trkpt>
      <trkpt lat="45.72276" lon="5.82264">
        <ele>582</ele>
        <time>2007-05-01T09:12:27Z</time>
      </trkpt>
      <trkpt lat="45.72262" lon="5.82289">
        <ele>585</ele>
        <time>2007-05-01T09:12:39Z</time>
      </trkpt>
      <trkpt lat="45.7225" lon="5.82318">
        <ele>588</ele>
        <time>2007-05-01T09:12:49Z</time>
      </trkpt>
      <trkpt lat="45.72242" lon="5.8235">
        <ele>593</ele>
        <time>2007-05-01T09:12:59Z</time>
      </trkpt>
      <trkpt lat="45.72234" lon="5.82378">
        <ele>597</ele>
        <time>2007-05-01T09:13:08Z</time>
      </trkpt>
      <trkpt lat="45.72225" lon="5.82406">
        <ele>600</ele>
        <time>2007-05-01T09:13:18Z</time>
      </trkpt>
      <trkpt lat="45.72215" lon="5.82431">
        <ele>603</ele>
        <time>2007-05-01T09:13:27Z</time>
      </trkpt>
      <trkpt lat="45.72211" lon="5.82462">
        <ele>606</ele>
        <time>2007-05-01T09:13:37Z</time>
      </trkpt>
      <trkpt lat="45.72219" lon="5.82489">
        <ele>612</ele>
        <time>2007-05-01T09:13:45Z</time>
      </trkpt>
      <trkpt lat="45.72221" lon="5.82517">
        <ele>615</ele>
        <time>2007-05-01T09:13:53Z</time>
      </trkpt>
      <trkpt lat="45.72215" lon="5.82546">
        <ele>615</ele>
        <time>2007-05-01T09:14:01Z</time>
      </trkpt>
      <trkpt lat="45.72206" lon="5.82572">
        <ele>616</ele>
        <time>2007-05-01T09:14:09Z</time>
      </trkpt>
      <trkpt lat="45.72208" lon="5.82599">
        <ele>620</ele>
        <time>2007-05-01T09:14:21Z</time>
      </trkpt>
      <trkpt lat="45.72228" lon="5.82601">
        <ele>623</ele>
        <time>2007-05-01T09:14:37Z</time>
      </trkpt>
      <trkpt lat="45.72226" lon="5.82629">
        <ele>627</ele>
        <time>2007-05-01T09:14:59Z</time>
      </trkpt>
      <trkpt lat="45.72203" lon="5.82683">
        <ele>636</ele>
        <time>2007-05-01T09:15:39Z</time>
      </trkpt>
      <trkpt lat="45.7219" lon="5.82707">
        <ele>639</ele>
        <time>2007-05-01T09:15:57Z</time>
      </trkpt>
      <trkpt lat="45.72178" lon="5.82731">
        <ele>643</ele>
        <time>2007-05-01T09:16:14Z</time>
      </trkpt>
      <trkpt lat="45.72163" lon="5.82752">
        <ele>646</ele>
        <time>2007-05-01T09:16:30Z</time>
      </trkpt>
      <trkpt lat="45.72147" lon="5.82772">
        <ele>648</ele>
        <time>2007-05-01T09:16:44Z</time>
      </trkpt>
      <trkpt lat="45.72131" lon="5.82785">
        <ele>648</ele>
        <time>2007-05-01T09:16:56Z</time>
      </trkpt>
      <trkpt lat="45.72114" lon="5.82797">
        <ele>648</ele>
        <time>2007-05-01T09:17:09Z</time>
      </trkpt>
      <trkpt lat="45.721" lon="5.82818">
        <ele>650</ele>
        <time>2007-05-01T09:17:23Z</time>
      </trkpt>
      <trkpt lat="45.72087" lon="5.82842">
        <ele>653</ele>
        <time>2007-05-01T09:17:37Z</time>
      </trkpt>
      <trkpt lat="45.72071" lon="5.8286">
        <ele>655</ele>
        <time>2007-05-01T09:17:49Z</time>
      </trkpt>
      <trkpt lat="45.72057" lon="5.82882">
        <ele>659</ele>
        <time>2007-05-01T09:18:02Z</time>
      </trkpt>
      <trkpt lat="45.72032" lon="5.82927">
        <ele>666</ele>
        <time>2007-05-01T09:18:24Z</time>
      </trkpt>
      <trkpt lat="45.72017" lon="5.82947">
        <ele>668</ele>
        <time>2007-05-01T09:18:35Z</time>
      </trkpt>
      <trkpt lat="45.72007" lon="5.82971">
        <ele>671</ele>
        <time>2007-05-01T09:18:47Z</time>
      </trkpt>
      <trkpt lat="45.71997" lon="5.82997">
        <ele>674</ele>
        <time>2007-05-01T09:18:58Z</time>
      </trkpt>
      <trkpt lat="45.71986" lon="5.8302">
        <ele>679</ele>
        <time>2007-05-01T09:19:09Z</time>
      </trkpt>
      <trkpt lat="45.71973" lon="5.83043">
        <ele>683</ele>
        <time>2007-05-01T09:19:21Z</time>
      </trkpt>
      <trkpt lat="45.71959" lon="5.83064">
        <ele>685</ele>
        <time>2007-05-01T09:19:33Z</time>
      </trkpt>
      <trkpt lat="45.71945" lon="5.83086">
        <ele>690</ele>
        <time>2007-05-01T09:19:45Z</time>
      </trkpt>
      <trkpt lat="45.71915" lon="5.83124">
        <ele>693</ele>
        <time>2007-05-01T09:20:13Z</time>
      </trkpt>
      <trkpt lat="45.71899" lon="5.83141">
        <ele>693</ele>
        <time>2007-05-01T09:20:27Z</time>
      </trkpt>
      <trkpt lat="45.71884" lon="5.83162">
        <ele>693</ele>
        <time>2007-05-01T09:20:40Z</time>
      </trkpt>
      <trkpt lat="45.71871" lon="5.83183">
        <ele>694</ele>
        <time>2007-05-01T09:20:52Z</time>
      </trkpt>
      <trkpt lat="45.71859" lon="5.83206">
        <ele>696</ele>
        <time>2007-05-01T09:21:04Z</time>
      </trkpt>
      <trkpt lat="45.71846" lon="5.83232">
        <ele>698</ele>
        <time>2007-05-01T09:21:16Z</time>
      </trkpt>
      <trkpt lat="45.71834" lon="5.83258">
        <ele>700</ele>
        <time>2007-05-01T09:21:27Z</time>
      </trkpt>
      <trkpt lat="45.71822" lon="5.83281">
        <ele>701</ele>
        <time>2007-05-01T09:21:38Z</time>
      </trkpt>
      <trkpt lat="45.71812" lon="5.83307">
        <ele>704</ele>
        <time>2007-05-01T09:21:50Z</time>
      </trkpt>
      <trkpt lat="45.71805" lon="5.83334">
        <ele>705</ele>
        <time>2007-05-01T09:22:03Z</time>
      </trkpt>
      <trkpt lat="45.71805" lon="5.83364">
        <ele>710</ele>
        <time>2007-05-01T09:22:16Z</time>
      </trkpt>
      <trkpt lat="45.71805" lon="5.83395">
        <ele>715</ele>
        <time>2007-05-01T09:22:30Z</time>
      </trkpt>
      <trkpt lat="45.71796" lon="5.83424">
        <ele>717</ele>
        <time>2007-05-01T09:22:43Z</time>
      </trkpt>
      <trkpt lat="45.71785" lon="5.83448">
        <ele>718</ele>
        <time>2007-05-01T09:22:56Z</time>
      </trkpt>
      <trkpt lat="45.71772" lon="5.83475">
        <ele>721</ele>
        <time>2007-05-01T09:23:09Z</time>
      </trkpt>
      <trkpt lat="45.71759" lon="5.83502">
        <ele>724</ele>
        <time>2007-05-01T09:23:25Z</time>
      </trkpt>
      <trkpt lat="45.71763" lon="5.83537">
        <ele>728</ele>
        <time>2007-05-01T09:23:38Z</time>
      </trkpt>
      <trkpt lat="45.7176" lon="5.83571">
        <ele>730</ele>
        <time>2007-05-01T09:23:49Z</time>
      </trkpt>
      <trkpt lat="45.71702" lon="5.83693">
        <ele>728</ele>
        <time>2007-05-01T09:24:35Z</time>
      </trkpt>
      <trkpt lat="45.71684" lon="5.83713">
        <ele>727</ele>
        <time>2007-05-01T09:24:42Z</time>
      </trkpt>
      <trkpt lat="45.71603" lon="5.83822">
        <ele>726</ele>
        <time>2007-05-01T09:25:09Z</time>
      </trkpt>
      <trkpt lat="45.71539" lon="5.83894">
        <ele>730</ele>
        <time>2007-05-01T09:25:18Z</time>
      </trkpt>
      <trkpt lat="45.7153" lon="5.83919">
        <ele>734</ele>
        <time>2007-05-01T09:25:23Z</time>
      </trkpt>
      <trkpt lat="45.71512" lon="5.83923">
        <ele>731</ele>
        <time>2007-05-01T09:25:29Z</time>
      </trkpt>
      <trkpt lat="45.71498" lon="5.8394">
        <ele>734</ele>
        <time>2007-05-01T09:25:35Z</time>
      </trkpt>
      <trkpt lat="45.71476" lon="5.83948">
        <ele>734</ele>
        <time>2007-05-01T09:25:42Z</time>
      </trkpt>
      <trkpt lat="45.71458" lon="5.83958">
        <ele>736</ele>
        <time>2007-05-01T09:25:51Z</time>
      </trkpt>
      <trkpt lat="45.71441" lon="5.83966">
        <ele>736</ele>
        <time>2007-05-01T09:26:01Z</time>
      </trkpt>
      <trkpt lat="45.71423" lon="5.83977">
        <ele>736</ele>
        <time>2007-05-01T09:26:13Z</time>
      </trkpt>
      <trkpt lat="45.71404" lon="5.83987">
        <ele>737</ele>
        <time>2007-05-01T09:26:24Z</time>
      </trkpt>
      <trkpt lat="45.71389" lon="5.84">
        <ele>741</ele>
        <time>2007-05-01T09:26:33Z</time>
      </trkpt>
      <trkpt lat="45.71356" lon="5.84026">
        <ele>748</ele>
        <time>2007-05-01T09:26:52Z</time>
      </trkpt>
      <trkpt lat="45.71337" lon="5.8404">
        <ele>750</ele>
        <time>2007-05-01T09:27:03Z</time>
      </trkpt>
      <trkpt lat="45.71305" lon="5.84072">
        <ele>758</ele>
        <time>2007-05-01T09:27:27Z</time>
      </trkpt>
      <trkpt lat="45.71268" lon="5.84106">
        <ele>764</ele>
        <time>2007-05-01T09:27:49Z</time>
      </trkpt>
      <trkpt lat="45.71248" lon="5.84116">
        <ele>763</ele>
        <time>2007-05-01T09:27:55Z</time>
      </trkpt>
      <trkpt lat="45.71225" lon="5.84128">
        <ele>762</ele>
        <time>2007-05-01T09:28:01Z</time>
      </trkpt>
      <trkpt lat="45.7114" lon="5.84164">
        <ele>754</ele>
        <time>2007-05-01T09:28:21Z</time>
      </trkpt>
      <trkpt lat="45.70945" lon="5.84203">
        <ele>743</ele>
        <time>2007-05-01T09:28:50Z</time>
      </trkpt>
      <trkpt lat="45.70905" lon="5.842">
        <ele>740</ele>
        <time>2007-05-01T09:29:04Z</time>
      </trkpt>
      <trkpt lat="45.70883" lon="5.84207">
        <ele>739</ele>
        <time>2007-05-01T09:29:09Z</time>
      </trkpt>
      <trkpt lat="45.70858" lon="5.84218">
        <ele>739</ele>
        <time>2007-05-01T09:29:13Z</time>
      </trkpt>
      <trkpt lat="45.70839" lon="5.84227">
        <ele>735</ele>
      </trkpt>
      <trkpt lat="45.70776" lon="5.84245">
        <ele>726</ele>
      </trkpt>
      <trkpt lat="45.70713" lon="5.84256">
        <ele>715</ele>
      </trkpt>
      <trkpt lat="45.7064" lon="5.84298">
        <ele>709</ele>
      </trkpt>
      <trkpt lat="45.70575" lon="5.84334">
        <ele>707</ele>
      </trkpt>
      <trkpt lat="45.70526" lon="5.84346">
        <ele>711</ele>
      </trkpt>
      <trkpt lat="45.70521" lon="5.84311">
        <ele>703</ele>
      </trkpt>
      <trkpt lat="45.70467" lon="5.843">
        <ele>694</ele>
      </trkpt>
      <trkpt lat="45.70431" lon="5.84346">
        <ele>702</ele>
      </trkpt>
      <trkpt lat="45.70374" lon="5.84336">
        <ele>694</ele>
      </trkpt>
      <trkpt lat="45.70329" lon="5.84362">
        <ele>695</ele>
      </trkpt>
      <trkpt lat="45.70289" lon="5.84406">
        <ele>694</ele>
      </trkpt>
      <trkpt lat="45.70239" lon="5.84442">
        <ele>695</ele>
      </trkpt>
      <trkpt lat="45.7019" lon="5.84479">
        <ele>697</ele>
      </trkpt>
      <trkpt lat="45.70143" lon="5.84476">
        <ele>689</ele>
      </trkpt>
      <trkpt lat="45.701" lon="5.84468">
        <ele>681</ele>
      </trkpt>
      <trkpt lat="45.70073" lon="5.84444">
        <ele>669</ele>
      </trkpt>
      <trkpt lat="45.70034" lon="5.84464">
        <ele>669</ele>
      </trkpt>
      <trkpt lat="45.6998" lon="5.84463">
        <ele>656</ele>
      </trkpt>
      <trkpt lat="45.69906" lon="5.84476">
        <ele>652</ele>
      </trkpt>
      <trkpt lat="45.69844" lon="5.8451">
        <ele>641</ele>
      </trkpt>
      <trkpt lat="45.69801" lon="5.84572">
        <ele>647</ele>
      </trkpt>
      <trkpt lat="45.69741" lon="5.84605">
        <ele>655</ele>
      </trkpt>
      <trkpt lat="45.69675" lon="5.8462">
        <ele>661</ele>
      </trkpt>
      <trkpt lat="45.69652" lon="5.84695">
        <ele>686</ele>
      </trkpt>
      <trkpt lat="45.69635" lon="5.84756">
        <ele>688</ele>
      </trkpt>
      <trkpt lat="45.69626" lon="5.84823">
        <ele>691</ele>
      </trkpt>
      <trkpt lat="45.6929" lon="5.849">
        <ele>658</ele>
      </trkpt>
      <trkpt lat="45.69268" lon="5.84799">
        <ele>649</ele>
      </trkpt>
      <trkpt lat="45.69312" lon="5.84695">
        <ele>645</ele>
      </trkpt>
      <trkpt lat="45.69358" lon="5.84586">
        <ele>632</ele>
      </trkpt>
      <trkpt lat="45.69392" lon="5.84517">
        <ele>619</ele>
      </trkpt>
      <trkpt lat="45.6935" lon="5.84486">
        <ele>627</ele>
      </trkpt>
      <trkpt lat="45.69345" lon="5.8436">
        <ele>609</ele>
      </trkpt>
      <trkpt lat="45.6929" lon="5.84321">
        <ele>631</ele>
      </trkpt>
      <trkpt lat="45.69231" lon="5.84253">
        <ele>653</ele>
      </trkpt>
      <trkpt lat="45.69175" lon="5.84189">
        <ele>670</ele>
      </trkpt>
      <trkpt lat="45.69127" lon="5.84141">
        <ele>684</ele>
      </trkpt>
      <trkpt lat="45.68934" lon="5.84096">
        <ele>727</ele>
      </trkpt>
      <trkpt lat="45.68853" lon="5.84046">
        <ele>738</ele>
      </trkpt>
      <trkpt lat="45.68805" lon="5.83998">
        <ele>744</ele>
      </trkpt>
      <trkpt lat="45.68716" lon="5.83951">
        <ele>758</ele>
      </trkpt>
      <trkpt lat="45.68613" lon="5.83858">
        <ele>778</ele>
      </trkpt>
      <trkpt lat="45.68546" lon="5.83779">
        <ele>799</ele>
      </trkpt>
      <trkpt lat="45.6851" lon="5.8371">
        <ele>801</ele>
      </trkpt>
      <trkpt lat="45.68444" lon="5.8366">
        <ele>811</ele>
      </trkpt>
      <trkpt lat="45.68362" lon="5.83613">
        <ele>832</ele>
      </trkpt>
      <trkpt lat="45.68283" lon="5.83528">
        <ele>855</ele>
      </trkpt>
      <trkpt lat="45.68218" lon="5.83444">
        <ele>867</ele>
      </trkpt>
      <trkpt lat="45.68147" lon="5.83417">
        <ele>878</ele>
      </trkpt>
      <trkpt lat="45.67989" lon="5.83436">
        <ele>960</ele>
      </trkpt>
      <trkpt lat="45.68023" lon="5.83643">
        <ele>1018</ele>
      </trkpt>
      <trkpt lat="45.67974" lon="5.83615">
        <ele>1042</ele>
      </trkpt>
      <trkpt lat="45.67996" lon="5.83722">
        <ele>1062</ele>
      </trkpt>
      <trkpt lat="45.67996" lon="5.83857">
        <ele>1074</ele>
      </trkpt>
      <trkpt lat="45.67881" lon="5.83933">
        <ele>1090</ele>
      </trkpt>
      <trkpt lat="45.67903" lon="5.83899">
        <ele>1095</ele>
      </trkpt>
      <trkpt lat="45.67876" lon="5.83888">
        <ele>1114</ele>
      </trkpt>
      <trkpt lat="45.67896" lon="5.83812">
        <ele>1134</ele>
      </trkpt>
      <trkpt lat="45.67876" lon="5.83827">
        <ele>1143</ele>
      </trkpt>
      <trkpt lat="45.67876" lon="5.8375">
        <ele>1170</ele>
      </trkpt>
      <trkpt lat="45.6781" lon="5.83688">
        <ele>1165</ele>
      </trkpt>
      <trkpt lat="45.67736" lon="5.83603">
        <ele>1174</ele>
      </trkpt>
      <trkpt lat="45.67645" lon="5.8351">
        <ele>1200</ele>
      </trkpt>
      <trkpt lat="45.67607" lon="5.83408">
        <ele>1245</ele>
      </trkpt>
      <trkpt lat="45.67544" lon="5.83337">
        <ele>1290</ele>
      </trkpt>
      <trkpt lat="45.67478" lon="5.8323">
        <ele>1287</ele>
      </trkpt>
      <trkpt lat="45.67381" lon="5.8324">
        <ele>1319</ele>
      </trkpt>
      <trkpt lat="45.67273" lon="5.83136">
        <ele>1352</ele>
      </trkpt>
      <trkpt lat="45.67165" lon="5.83072">
        <ele>1381</ele>
      </trkpt>
      <trkpt lat="45.67113" lon="5.8294">
        <ele>1429</ele>
      </trkpt>
      <trkpt lat="45.6705" lon="5.82862">
        <ele>1430</ele>
      </trkpt>
      <trkpt lat="45.66914" lon="5.82757">
        <ele>1451</ele>
      </trkpt>
      <trkpt lat="45.66757" lon="5.82603">
        <ele>1455</ele>
      </trkpt>
      <trkpt lat="45.66628" lon="5.82611">
        <ele>1431</ele>
      </trkpt>
      <trkpt lat="45.66584" lon="5.82582">
        <ele>1429</ele>
      </trkpt>
      <trkpt lat="45.66499" lon="5.82477">
        <ele>1440</ele>
      </trkpt>
      <trkpt lat="45.66439" lon="5.82396">
        <ele>1452</ele>
      </trkpt>
      <trkpt lat="45.66418" lon="5.82389">
        <ele>1451.064941</ele>
      </trkpt>
      <trkpt lat="45.66389" lon="5.82347">
        <ele>1456.37793</ele>
      </trkpt>
      <trkpt lat="45.66348" lon="5.82294">
        <ele>1464.225342</ele>
      </trkpt>
      <trkpt lat="45.66266" lon="5.82239">
        <ele>1471.961792</ele>
      </trkpt>
      <trkpt lat="45.66193" lon="5.82206">
        <ele>1475.398682</ele>
      </trkpt>
      <trkpt lat="45.66097" lon="5.8216">
        <ele>1483.429688</ele>
      </trkpt>
      <trkpt lat="45.6604" lon="5.82098">
        <ele>1486.217285</ele>
      </trkpt>
      <trkpt lat="45.65992" lon="5.82061">
        <ele>1481.969971</ele>
      </trkpt>
      <trkpt lat="45.6594" lon="5.8209">
        <ele>1480.253052</ele>
      </trkpt>
      <trkpt lat="45.65887" lon="5.8213">
        <ele>1469.409302</ele>
      </trkpt>
      <trkpt lat="45.658" lon="5.82112">
        <ele>1457.486572</ele>
      </trkpt>
      <trkpt lat="45.6565" lon="5.82037">
        <ele>1460.840454</ele>
      </trkpt>
      <trkpt lat="45.65522" lon="5.81988">
        <ele>1461.168335</ele>
      </trkpt>
      <trkpt lat="45.6544" lon="5.81964">
        <ele>1463.018799</ele>
      </trkpt>
      <trkpt lat="45.65405" lon="5.81922">
        <ele>1464.974854</ele>
      </trkpt>
      <trkpt lat="45.65331" lon="5.81935">
        <ele>1462.288452</ele>
      </trkpt>
      <trkpt lat="45.65242" lon="5.819">
        <ele>1460.001587</ele>
      </trkpt>
      <trkpt lat="45.64974" lon="5.81835">
        <ele>1452.986328</ele>
      </trkpt>
      <trkpt lat="45.64865" lon="5.81801">
        <ele>1461.140259</ele>
      </trkpt>
      <trkpt lat="45.64837" lon="5.81795">
        <ele>1472</ele>
      </trkpt>
      <trkpt lat="45.64767" lon="5.81839">
        <ele>1468</ele>
      </trkpt>
      <trkpt lat="45.6481" lon="5.81847">
        <ele>1463</ele>
      </trkpt>
      <trkpt lat="45.64781" lon="5.81881">
        <ele>1456</ele>
      </trkpt>
      <trkpt lat="45.64846" lon="5.81889">
        <ele>1451</ele>
      </trkpt>
      <trkpt lat="45.6488" lon="5.81923">
        <ele>1428</ele>
      </trkpt>
      <trkpt lat="45.64876" lon="5.81954">
        <ele>1423</ele>
      </trkpt>
      <trkpt lat="45.64901" lon="5.81988">
        <ele>1414</ele>
      </trkpt>
      <trkpt lat="45.64811" lon="5.82022">
        <ele>1393</ele>
      </trkpt>
      <trkpt lat="45.64779" lon="5.82053">
        <ele>1387</ele>
      </trkpt>
      <trkpt lat="45.64691" lon="5.82079">
        <ele>1382</ele>
      </trkpt>
      <trkpt lat="45.64531" lon="5.8215">
        <ele>1348</ele>
      </trkpt>
      <trkpt lat="45.64475" lon="5.822">
        <ele>1323</ele>
      </trkpt>
      <trkpt lat="45.64398" lon="5.82223">
        <ele>1317</ele>
      </trkpt>
      <trkpt lat="45.64285" lon="5.82304">
        <ele>1290</ele>
      </trkpt>
      <trkpt lat="45.64429" lon="5.82406">
        <ele>1253</ele>
      </trkpt>
      <trkpt lat="45.64546" lon="5.82434">
        <ele>1225</ele>
      </trkpt>
      <trkpt lat="45.64639" lon="5.82502">
        <ele>1190</ele>
      </trkpt>
      <trkpt lat="45.64668" lon="5.82526">
        <ele>1186</ele>
      </trkpt>
      <trkpt lat="45.64768" lon="5.82547">
        <ele>1176</ele>
      </trkpt>
      <trkpt lat="45.64804" lon="5.8257">
        <ele>1173</ele>
      </trkpt>
      <trkpt lat="45.64756" lon="5.82588">
        <ele>1155</ele>
      </trkpt>
      <trkpt lat="45.64716" lon="5.82656">
        <ele>1137</ele>
      </trkpt>
      <trkpt lat="45.6465" lon="5.82664">
        <ele>1135</ele>
      </trkpt>
      <trkpt lat="45.64592" lon="5.82695">
        <ele>1111</ele>
      </trkpt>
      <trkpt lat="45.64684" lon="5.82766">
        <ele>1080</ele>
      </trkpt>
      <trkpt lat="45.64801" lon="5.82829">
        <ele>1068</ele>
      </trkpt>
      <trkpt lat="45.64846" lon="5.82829">
        <ele>1067</ele>
      </trkpt>
      <trkpt lat="45.64896" lon="5.82891">
        <ele>1039</ele>
      </trkpt>
      <trkpt lat="45.64971" lon="5.82923">
        <ele>1016</ele>
      </trkpt>
      <trkpt lat="45.64898" lon="5.82938">
        <ele>1008</ele>
      </trkpt>
      <trkpt lat="45.64916" lon="5.82946">
        <ele>1007</ele>
      </trkpt>
      <trkpt lat="45.64869" lon="5.82975">
        <ele>997</ele>
      </trkpt>
      <trkpt lat="45.65002" lon="5.8309">
        <ele>948</ele>
      </trkpt>
      <trkpt lat="45.64901" lon="5.83139">
        <ele>929</ele>
      </trkpt>
      <trkpt lat="45.64987" lon="5.83215">
        <ele>907</ele>
      </trkpt>
      <trkpt lat="45.65045" lon="5.83233">
        <ele>908</ele>
      </trkpt>
      <trkpt lat="45.65194" lon="5.83387">
        <ele>860</ele>
      </trkpt>
      <trkpt lat="45.6505" lon="5.83416">
        <ele>849</ele>
      </trkpt>
      <trkpt lat="45.64946" lon="5.83473">
        <ele>811</ele>
      </trkpt>
      <trkpt lat="45.64851" lon="5.83473">
        <ele>799</ele>
      </trkpt>
      <trkpt lat="45.64711" lon="5.83507">
        <ele>758</ele>
      </trkpt>
      <trkpt lat="45.64678" lon="5.83499">
        <ele>770</ele>
      </trkpt>
      <trkpt lat="45.64669" lon="5.83528">
        <ele>754</ele>
      </trkpt>
      <trkpt lat="45.64562" lon="5.8358">
        <ele>735</ele>
      </trkpt>
      <trkpt lat="45.64741" lon="5.83732">
        <ele>683</ele>
      </trkpt>
      <trkpt lat="45.64628" lon="5.8375">
        <ele>676</ele>
      </trkpt>
      <trkpt lat="45.64565" lon="5.83792">
        <ele>648</ele>
      </trkpt>
      <trkpt lat="45.64529" lon="5.83805">
        <ele>645</ele>
      </trkpt>
      <trkpt lat="45.64479" lon="5.83865">
        <ele>619</ele>
      </trkpt>
      <trkpt lat="45.64375" lon="5.83896">
        <ele>611</ele>
      </trkpt>
      <trkpt lat="45.64368" lon="5.83906">
        <ele>610</ele>
      </trkpt>
      <trkpt lat="45.64423" lon="5.83943">
        <ele>591</ele>
      </trkpt>
      <trkpt lat="45.64449" lon="5.83987">
        <ele>584</ele>
      </trkpt>
      <trkpt lat="45.64407" lon="5.84016">
        <ele>568</ele>
      </trkpt>
      <trkpt lat="45.6452" lon="5.84159">
        <ele>538</ele>
      </trkpt>
      <trkpt lat="45.64507" lon="5.84177">
        <ele>522.475647</ele>
      </trkpt>
      <trkpt lat="45.64404" lon="5.84264">
        <ele>507.194733</ele>
      </trkpt>
      <trkpt lat="45.64481" lon="5.84319">
        <ele>493.498474</ele>
      </trkpt>
      <trkpt lat="45.6449" lon="5.84332">
        <ele>490.151245</ele>
      </trkpt>
      <trkpt lat="45.64554" lon="5.84338">
        <ele>483.586243</ele>
      </trkpt>
      <trkpt lat="45.64637" lon="5.84356">
        <ele>475.303741</ele>
      </trkpt>
      <trkpt lat="45.64571" lon="5.8447">
        <ele>455.481598</ele>
      </trkpt>
      <trkpt lat="45.64641" lon="5.84507">
        <ele>443.068024</ele>
      </trkpt>
      <trkpt lat="45.64703" lon="5.84532">
        <ele>434.366028</ele>
      </trkpt>
      <trkpt lat="45.64718" lon="5.84573">
        <ele>418.932251</ele>
      </trkpt>
      <trkpt lat="45.64798" lon="5.84639">
        <ele>396.997314</ele>
      </trkpt>
      <trkpt lat="45.64749" lon="5.84655">
        <ele>393.341522</ele>
      </trkpt>
      <trkpt lat="45.64726" lon="5.84811">
        <ele>364.574524</ele>
      </trkpt>
      <trkpt lat="45.64697" lon="5.85">
        <ele>339.893707</ele>
      </trkpt>
      <trkpt lat="45.6469" lon="5.85008">
        <ele>339</ele>
        <time>2008-09-29T18:16:19Z</time>
      </trkpt>
      <trkpt lat="45.64696" lon="5.85031">
        <ele>336</ele>
        <time>2008-09-29T18:16:19Z</time>
      </trkpt>
      <trkpt lat="45.6469" lon="5.85072">
        <ele>333</ele>
        <time>2008-09-29T18:16:19Z</time>
      </trkpt>
      <trkpt lat="45.64678" lon="5.85113">
        <ele>331</ele>
        <time>2008-09-29T18:16:19Z</time>
      </trkpt>
      <trkpt lat="45.64682" lon="5.85181">
        <ele>323</ele>
        <time>2008-09-29T18:16:19Z</time>
      </trkpt>
      <trkpt lat="45.64697" lon="5.8521">
        <ele>317</ele>
        <time>2008-09-29T18:16:19Z</time>
      </trkpt>
      <trkpt lat="45.647" lon="5.85259">
        <ele>309</ele>
        <time>2008-09-29T18:16:19Z</time>
      </trkpt>
      <trkpt lat="45.64701" lon="5.85307">
        <ele>303</ele>
        <time>2008-09-29T18:16:19Z</time>
      </trkpt>
      <trkpt lat="45.64709" lon="5.8534">
        <ele>301</ele>
        <time>2008-09-29T18:16:19Z</time>
      </trkpt>
      <trkpt lat="45.64714" lon="5.85391">
        <ele>298</ele>
        <time>2008-09-29T18:16:19Z</time>
      </trkpt>
      <trkpt lat="45.64718" lon="5.85417">
        <ele>296</ele>
        <time>2008-09-29T18:16:19Z</time>
      </trkpt>
      <trkpt lat="45.6473" lon="5.85444">
        <ele>292</ele>
        <time>2008-09-29T18:16:19Z</time>
      </trkpt>
      <trkpt lat="45.64742" lon="5.85502">
        <ele>281</ele>
        <time>2008-09-29T18:16:19Z</time>
      </trkpt>
      <trkpt lat="45.64752" lon="5.85528">
        <ele>277</ele>
        <time>2008-09-29T18:16:19Z</time>
      </trkpt>
      <trkpt lat="45.64755" lon="5.85532">
        <ele>276</ele>
        <time>2008-09-29T18:16:19Z</time>
      </trkpt>
      <trkpt lat="45.6478" lon="5.85575">
        <ele>269</ele>
        <time>2008-09-29T18:16:19Z</time>
      </trkpt>
      <trkpt lat="45.64797" lon="5.85631">
        <ele>263</ele>
        <time>2008-09-29T18:16:19Z</time>
      </trkpt>
      <trkpt lat="45.64807" lon="5.85664">
        <ele>261</ele>
        <time>2008-09-29T18:16:19Z</time>
      </trkpt>
      <trkpt lat="45.64821" lon="5.85706">
        <ele>259</ele>
        <time>2008-09-29T18:16:19Z</time>
      </trkpt>
      <trkpt lat="45.64836" lon="5.85742">
        <ele>258</ele>
        <time>2008-09-29T18:16:19Z</time>
      </trkpt>
      <trkpt lat="45.64842" lon="5.85772">
        <ele>256</ele>
        <time>2008-09-29T18:16:19Z</time>
      </trkpt>
      <trkpt lat="45.64847" lon="5.85817">
        <ele>252</ele>
        <time>2008-09-29T18:16:19Z</time>
      </trkpt>
      <trkpt lat="45.64852" lon="5.85865">
        <ele>249</ele>
        <time>2008-09-29T18:16:19Z</time>
      </trkpt>
      <trkpt lat="45.64853" lon="5.85917">
        <ele>246</ele>
        <time>2008-09-29T18:16:19Z</time>
      </trkpt>
      <trkpt lat="45.64856" lon="5.85959">
        <ele>244</ele>
        <time>2008-09-29T18:16:19Z</time>
      </trkpt>
      <trkpt lat="45.64862" lon="5.85994">
        <ele>243</ele>
        <time>2008-09-29T18:16:19Z</time>
      </trkpt>
      <trkpt lat="45.64823" lon="5.86011">
        <ele>243</ele>
        <time>2008-09-29T18:16:19Z</time>
      </trkpt>
      <trkpt lat="45.64824" lon="5.86008">
        <ele>243</ele>
        <time>2008-09-29T18:16:19Z</time>
      </trkpt>
      <trkpt lat="45.64797" lon="5.8601">
        <ele>244</ele>
        <time>2008-09-29T18:16:19Z</time>
      </trkpt>
      <trkpt lat="45.64776" lon="5.86021">
        <ele>244</ele>
        <time>2008-09-29T18:16:19Z</time>
      </trkpt>
    </trkseg>
  </trk>
</gpx>